Observation data for Fort Chadbourne on 12/08/2018      Previous  Date       Current Mesonet Observations  Soil Data  Daily Summary Page  Observations in Plain Language
KCH1 080600Z 34005KT 02/02 A3023 RMK A01 T00200016  RH  098%=      5-min Rain = 0
KCH1 080601Z 35008KT 02/02 A3024 RMK A01 T00190016  RH  098%=      5-min Rain = 0
KCH1 080602Z 34007KT 02/02 A3024 RMK A01 T00190016  RH  098%=      5-min Rain = 0
KCH1 080603Z 35006KT 02/02 A3024 RMK A01 T00190016  RH  098%=      5-min Rain = 0
KCH1 080604Z 35008KT 02/02 A3024 RMK A01 T00200016  RH  098%=      5-min Rain = 0
KCH1 080605Z 00008KT 02/02 A3024 RMK A01 T00200016  RH  098%=      5-min Rain = 0
KCH1 080606Z 36007KT 02/02 A3024 RMK A01 T00190016  RH  098%=      5-min Rain = 0
KCH1 080607Z 36005KT 02/02 A3024 RMK A01 T00190016  RH  098%=      5-min Rain = 0
KCH1 080608Z 36006KT 02/02 A3024 RMK A01 T00190016  RH  098%=      5-min Rain = 0
KCH1 080609Z 01006KT 02/02 A3024 RMK A01 T00190016  RH  098%=      5-min Rain = 0
KCH1 080610Z 01005KT 02/02 A3023 RMK A01 T00190016  RH  098%=      5-min Rain = 0
KCH1 080611Z 01006KT 02/02 A3023 RMK A01 T00190016  RH  098%=      5-min Rain = 0
KCH1 080612Z 36006KT 02/02 A3023 RMK A01 T00190016  RH  098%=      5-min Rain = 0
KCH1 080613Z 02005KT 02/02 A3023 RMK A01 T00190016  RH  098%=      5-min Rain = 0
KCH1 080614Z 01006KT 02/02 A3023 RMK A01 T00190016  RH  098%=      5-min Rain = 0
KCH1 080615Z 01007KT 02/02 A3023 RMK A01 T00190016  RH  098%=      5-min Rain = 0
KCH1 080616Z 02008KT 02/02 A3023 RMK A01 T00200016  RH  098%=      5-min Rain = 0
KCH1 080617Z 02006KT 02/02 A3023 RMK A01 T00190017  RH  098%=      5-min Rain = 0
KCH1 080618Z 02008KT 02/02 A3023 RMK A01 T00190016  RH  098%=      5-min Rain = 0
KCH1 080619Z 02008KT 02/02 A3023 RMK A01 T00190016  RH  098%=      5-min Rain = 0
KCH1 080620Z 02010KT 02/02 A3023 RMK A01 T00200017  RH  098%=      5-min Rain = 0
KCH1 080621Z 02007KT 02/02 A3023 RMK A01 T00190016  RH  098%=      5-min Rain = 0
KCH1 080622Z 01005KT 02/02 A3023 RMK A01 T00190016  RH  098%=      5-min Rain = 0.01
KCH1 080623Z 02005KT 02/02 A3023 RMK A01 T00200017  RH  098%=      5-min Rain = 0
KCH1 080624Z 02005KT 02/02 A3023 RMK A01 T00190016  RH  098%=      5-min Rain = 0
KCH1 080625Z 03006KT 02/02 A3023 RMK A01 T00190016  RH  098%=      5-min Rain = 0
KCH1 080626Z 03006KT 02/02 A3023 RMK A01 T00200017  RH  098%=      5-min Rain = 0
KCH1 080627Z 02005KT 02/02 A3023 RMK A01 T00190017  RH  098%=      5-min Rain = 0.01
KCH1 080628Z 03004KT 02/02 A3023 RMK A01 T00200017  RH  098%=      5-min Rain = 0
KCH1 080629Z 01006KT 02/02 A3023 RMK A01 T00190017  RH  098%=      5-min Rain = 0
KCH1 080630Z 03006KT 02/02 A3023 RMK A01 T00200017  RH  098%=      5-min Rain = 0
KCH1 080631Z 03005KT 02/02 A3023 RMK A01 T00190017  RH  098%=      5-min Rain = 0
KCH1 080632Z 03004KT 02/02 A3023 RMK A01 T00200017  RH  098%=      5-min Rain = 0
KCH1 080633Z 03004KT 02/02 A3023 RMK A01 T00200017  RH  098%=      5-min Rain = 0
KCH1 080634Z 02003KT 02/02 A3023 RMK A01 T00200017  RH  098%=      5-min Rain = 0.01
KCH1 080635Z 01002KT 02/02 A3023 RMK A01 T00200017  RH  098%=      5-min Rain = 0
KCH1 080636Z 01002KT 02/02 A3023 RMK A01 T00200017  RH  098%=      5-min Rain = 0
KCH1 080637Z 01002KT 02/02 A3023 RMK A01 T00200018  RH  098%=      5-min Rain = 0
KCH1 080638Z 35003KT 02/02 A3023 RMK A01 T00200018  RH  098%=      5-min Rain = 0
KCH1 080639Z 02002KT 02/02 A3023 RMK A01 T00200018  RH  098%=      5-min Rain = 0
KCH1 080640Z 01003KT 02/02 A3023 RMK A01 T00200018  RH  098%=      5-min Rain = 0
KCH1 080641Z 02003KT 02/02 A3023 RMK A01 T00200018  RH  099%=      5-min Rain = 0
KCH1 080642Z 02002KT 02/02 A3023 RMK A01 T00200018  RH  099%=      5-min Rain = 0
KCH1 080643Z 03002KT 02/02 A3023 RMK A01 T00200018  RH  099%=      5-min Rain = 0
KCH1 080644Z 03003KT 02/02 A3023 RMK A01 T00200018  RH  099%=      5-min Rain = 0
KCH1 080645Z 04002KT 02/02 A3023 RMK A01 T00200018  RH  099%=      5-min Rain = 0
KCH1 080646Z 04003KT 02/02 A3022 RMK A01 T00200018  RH  099%=      5-min Rain = 0
KCH1 080647Z 05003KT 02/02 A3022 RMK A01 T00210019  RH  099%=      5-min Rain = 0
KCH1 080648Z 05003KT 02/02 A3022 RMK A01 T00210019  RH  099%=      5-min Rain = 0
KCH1 080649Z 06004KT 02/02 A3022 RMK A01 T00200019  RH  099%=      5-min Rain = 0.01
KCH1 080650Z 04003KT 02/02 A3023 RMK A01 T00210019  RH  099%=      5-min Rain = 0
KCH1 080651Z 04003KT 02/02 A3023 RMK A01 T00200019  RH  099%=      5-min Rain = 0
KCH1 080652Z 03004KT 02/02 A3023 RMK A01 T00200019  RH  099%=      5-min Rain = 0
KCH1 080653Z 03004KT 02/02 A3023 RMK A01 T00200019  RH  099%=      5-min Rain = 0
KCH1 080654Z 04007KT 02/02 A3023 RMK A01 T00200019  RH  099%=      5-min Rain = 0
KCH1 080655Z 04008KT 02/02 A3023 RMK A01 T00200018  RH  099%=      5-min Rain = 0
KCH1 080656Z 04007KT 02/02 A3023 RMK A01 T00200018  RH  098%=      5-min Rain = 0
KCH1 080657Z 04006KT 02/02 A3023 RMK A01 T00200017  RH  098%=      5-min Rain = 0
KCH1 080658Z 05005KT 02/02 A3023 RMK A01 T00190017  RH  098%=      5-min Rain = 0
KCH1 080659Z 03004KT 02/02 A3023 RMK A01 T00200017  RH  098%=      5-min Rain = 0
KCH1 080700Z 05008KT 02/02 A3023 RMK A01 T00200017  RH  098%=      5-min Rain = 0
KCH1 080701Z 04007KT 02/02 A3023 RMK A01 T00200017  RH  098%=      5-min Rain = 0
KCH1 080702Z 04007KT 02/02 A3023 RMK A01 T00200017  RH  098%=      5-min Rain = 0
KCH1 080703Z 05008KT 02/02 A3023 RMK A01 T00200016  RH  098%=      5-min Rain = 0
KCH1 080704Z 05006KT 02/02 A3023 RMK A01 T00200016  RH  098%=      5-min Rain = 0
KCH1 080705Z 04005KT 02/02 A3023 RMK A01 T00200016  RH  097%=      5-min Rain = 0
KCH1 080706Z 04006KT 02/02 A3023 RMK A01 T00200016  RH  097%=      5-min Rain = 0
KCH1 080707Z 04006KT 02/02 A3023 RMK A01 T00200016  RH  097%=      5-min Rain = 0
KCH1 080708Z 04005KT 02/02 A3023 RMK A01 T00200016  RH  097%=      5-min Rain = 0
KCH1 080709Z 05005KT 02/02 A3023 RMK A01 T00190016  RH  098%=      5-min Rain = 0
KCH1 080710Z 04005KT 02/02 A3023 RMK A01 T00200016  RH  098%=      5-min Rain = 0
KCH1 080711Z 03004KT 02/02 A3023 RMK A01 T00200016  RH  098%=      5-min Rain = 0
KCH1 080712Z 02007KT 02/02 A3023 RMK A01 T00190016  RH  098%=      5-min Rain = 0
KCH1 080713Z 01005KT 02/02 A3023 RMK A01 T00190016  RH  098%=      5-min Rain = 0
KCH1 080714Z 03005KT 02/02 A3023 RMK A01 T00190016  RH  098%=      5-min Rain = 0
KCH1 080715Z 03004KT 02/02 A3023 RMK A01 T00190016  RH  098%=      5-min Rain = 0
KCH1 080716Z 04007KT 02/02 A3023 RMK A01 T00190016  RH  098%=      5-min Rain = 0
KCH1 080717Z 03009KT 02/02 A3023 RMK A01 T00190016  RH  098%=      5-min Rain = 0
KCH1 080718Z 03008KT 02/02 A3023 RMK A01 T00190015  RH  098%=      5-min Rain = 0
KCH1 080719Z 04007KT 02/02 A3023 RMK A01 T00190015  RH  098%=      5-min Rain = 0
KCH1 080720Z 03006KT 02/02 A3023 RMK A01 T00180015  RH  097%=      5-min Rain = 0
KCH1 080721Z 03007KT 02/02 A3023 RMK A01 T00190015  RH  097%=      5-min Rain = 0
KCH1 080722Z 03007KT 02/02 A3023 RMK A01 T00180015  RH  097%=      5-min Rain = 0.01
KCH1 080723Z 03007KT 02/02 A3023 RMK A01 T00180015  RH  097%=      5-min Rain = 0
KCH1 080724Z 03008KT 02/02 A3023 RMK A01 T00190015  RH  097%=      5-min Rain = 0
KCH1 080725Z 03007KT 02/01 A3023 RMK A01 T00190014  RH  097%=      5-min Rain = 0
KCH1 080726Z 02006KT 02/01 A3023 RMK A01 T00180014  RH  097%=      5-min Rain = 0
KCH1 080727Z 04009KT 02/01 A3023 RMK A01 T00180014  RH  097%=      5-min Rain = 0
KCH1 080728Z 03009KT 02/01 A3023 RMK A01 T00180014  RH  097%=      5-min Rain = 0
KCH1 080729Z 02007KT 02/01 A3023 RMK A01 T00180014  RH  097%=      5-min Rain = 0
KCH1 080730Z 01008KT 02/01 A3023 RMK A01 T00180014  RH  097%=      5-min Rain = 0
KCH1 080731Z 04007KT 02/01 A3023 RMK A01 T00180014  RH  097%=      5-min Rain = 0
KCH1 080732Z 04005KT 02/01 A3023 RMK A01 T00180013  RH  097%=      5-min Rain = 0
KCH1 080733Z 03006KT 02/01 A3022 RMK A01 T00180013  RH  097%=      5-min Rain = 0
KCH1 080734Z 03007KT 02/01 A3022 RMK A01 T00180013  RH  097%=      5-min Rain = 0
KCH1 080735Z 03008KT 02/01 A3022 RMK A01 T00180014  RH  097%=      5-min Rain = 0
KCH1 080736Z 04007KT 02/01 A3022 RMK A01 T00180014  RH  097%=      5-min Rain = 0
KCH1 080737Z 05009KT 02/01 A3022 RMK A01 T00180014  RH  097%=      5-min Rain = 0
KCH1 080738Z 04007KT 02/01 A3022 RMK A01 T00180014  RH  097%=      5-min Rain = 0
KCH1 080739Z 04007KT 02/01 A3022 RMK A01 T00180014  RH  098%=      5-min Rain = 0
KCH1 080740Z 03006KT 02/01 A3022 RMK A01 T00180014  RH  098%=      5-min Rain = 0
KCH1 080741Z 03007KT 02/02 A3022 RMK A01 T00180015  RH  098%=      5-min Rain = 0
KCH1 080742Z 03008KT 02/01 A3022 RMK A01 T00170014  RH  098%=      5-min Rain = 0
KCH1 080743Z 02006KT 02/01 A3022 RMK A01 T00170014  RH  098%=      5-min Rain = 0
KCH1 080744Z 02009KT 02/01 A3022 RMK A01 T00170014  RH  098%=      5-min Rain = 0
KCH1 080745Z 03007KT 02/01 A3022 RMK A01 T00170014  RH  098%=      5-min Rain = 0
KCH1 080746Z 02007KT 02/01 A3022 RMK A01 T00170013  RH  098%=      5-min Rain = 0
KCH1 080747Z 03006KT 02/01 A3022 RMK A01 T00170014  RH  098%=      5-min Rain = 0
KCH1 080748Z 04009KT 02/01 A3022 RMK A01 T00170013  RH  098%=      5-min Rain = 0
KCH1 080749Z 02008KT 02/01 A3022 RMK A01 T00170014  RH  098%=      5-min Rain = 0
KCH1 080750Z 02007KT 02/01 A3022 RMK A01 T00170013  RH  098%=      5-min Rain = 0
KCH1 080751Z 02008KT 02/01 A3022 RMK A01 T00170013  RH  098%=      5-min Rain = 0
KCH1 080752Z 02009KT 02/01 A3022 RMK A01 T00160013  RH  098%=      5-min Rain = 0
KCH1 080753Z 02006KT 02/01 A3022 RMK A01 T00160013  RH  098%=      5-min Rain = 0
KCH1 080754Z 02006KT 02/01 A3022 RMK A01 T00160013  RH  098%=      5-min Rain = 0
KCH1 080755Z 02006KT 02/01 A3022 RMK A01 T00160013  RH  098%=      5-min Rain = 0
KCH1 080756Z 02007KT 02/01 A3022 RMK A01 T00160013  RH  098%=      5-min Rain = 0
KCH1 080757Z 03008KT 02/01 A3022 RMK A01 T00170014  RH  098%=      5-min Rain = 0
KCH1 080758Z 02010KT 02/01 A3022 RMK A01 T00160013  RH  098%=      5-min Rain = 0
KCH1 080759Z 03009KT 02/01 A3022 RMK A01 T00160013  RH  098%=      5-min Rain = 0
KCH1 080800Z 02008KT 02/01 A3022 RMK A01 T00160013  RH  098%=      5-min Rain = 0
KCH1 080801Z 02005KT 02/01 A3022 RMK A01 T00160013  RH  098%=      5-min Rain = 0
KCH1 080802Z 02005KT 02/01 A3022 RMK A01 T00160013  RH  098%=      5-min Rain = 0
KCH1 080803Z 01007KT 02/01 A3021 RMK A01 T00160013  RH  098%=      5-min Rain = 0
KCH1 080804Z 03009KT 02/01 A3021 RMK A01 T00160013  RH  098%=      5-min Rain = 0
KCH1 080805Z 02008KT 02/01 A3021 RMK A01 T00160013  RH  098%=      5-min Rain = 0.01
KCH1 080806Z 02008KT 02/01 A3021 RMK A01 T00160013  RH  098%=      5-min Rain = 0
KCH1 080807Z 02010KT 02/01 A3021 RMK A01 T00160013  RH  098%=      5-min Rain = 0
KCH1 080808Z 03009KT 02/01 A3021 RMK A01 T00150012  RH  098%=      5-min Rain = 0
KCH1 080809Z 03007KT 02/01 A3021 RMK A01 T00150012  RH  098%=      5-min Rain = 0
KCH1 080810Z 03007KT 02/01 A3021 RMK A01 T00150012  RH  098%=      5-min Rain = 0
KCH1 080811Z 03008KT 02/01 A3021 RMK A01 T00150012  RH  098%=      5-min Rain = 0
KCH1 080812Z 02008KT 02/01 A3021 RMK A01 T00150012  RH  098%=      5-min Rain = 0
KCH1 080813Z 03007KT 02/01 A3021 RMK A01 T00150012  RH  098%=      5-min Rain = 0
KCH1 080814Z 02008KT 02/01 A3021 RMK A01 T00150011  RH  098%=      5-min Rain = 0
KCH1 080815Z 02006KT 02/01 A3021 RMK A01 T00150012  RH  098%=      5-min Rain = 0
KCH1 080816Z 02010KT 02/01 A3021 RMK A01 T00150012  RH  098%=      5-min Rain = 0
KCH1 080817Z 03011KT 02/01 A3021 RMK A01 T00150012  RH  098%=      5-min Rain = 0
KCH1 080818Z 02011KT 02/01 A3021 RMK A01 T00150011  RH  098%=      5-min Rain = 0
KCH1 080819Z 03009KT 02/01 A3021 RMK A01 T00150011  RH  097%=      5-min Rain = 0
KCH1 080820Z 03009KT 02/01 A3021 RMK A01 T00150011  RH  097%=      5-min Rain = 0
KCH1 080821Z 03009KT 02/01 A3021 RMK A01 T00150011  RH  097%=      5-min Rain = 0
KCH1 080822Z 03009KT 02/01 A3021 RMK A01 T00150011  RH  097%=      5-min Rain = 0
KCH1 080823Z 02007KT 02/01 A3021 RMK A01 T00150011  RH  097%=      5-min Rain = 0
KCH1 080824Z 02007KT 02/01 A3021 RMK A01 T00150011  RH  097%=      5-min Rain = 0
KCH1 080825Z 03008KT 02/01 A302 RMK A01 T00150010  RH  097%=      5-min Rain = 0
KCH1 080826Z 02007KT 02/01 A302 RMK A01 T00150011  RH  097%=      5-min Rain = 0
KCH1 080827Z 02007KT 02/01 A302 RMK A01 T00150010  RH  097%=      5-min Rain = 0
KCH1 080828Z 02005KT 02/01 A302 RMK A01 T00150011  RH  097%=      5-min Rain = 0
KCH1 080829Z 02006KT 02/01 A302 RMK A01 T00150011  RH  097%=      5-min Rain = 0
KCH1 080830Z 02006KT 02/01 A302 RMK A01 T00150011  RH  097%=      5-min Rain = 0
KCH1 080831Z 02005KT 02/01 A302 RMK A01 T00150011  RH  097%=      5-min Rain = 0
KCH1 080832Z 01005KT 02/01 A302 RMK A01 T00150011  RH  097%=      5-min Rain = 0
KCH1 080833Z 01006KT 02/01 A302 RMK A01 T00150011  RH  098%=      5-min Rain = 0
KCH1 080834Z 01009KT 02/01 A302 RMK A01 T00150012  RH  098%=      5-min Rain = 0
KCH1 080835Z 01009KT 02/01 A302 RMK A01 T00150011  RH  098%=      5-min Rain = 0
KCH1 080836Z 03009KT 01/01 A302 RMK A01 T00140011  RH  098%=      5-min Rain = 0
KCH1 080837Z 01007KT 02/01 A302 RMK A01 T00150011  RH  098%=      5-min Rain = 0
KCH1 080838Z 02007KT 01/01 A302 RMK A01 T00140011  RH  098%=      5-min Rain = 0
KCH1 080839Z 00008KT 01/01 A302 RMK A01 T00140011  RH  098%=      5-min Rain = 0
KCH1 080840Z 01007KT 01/01 A302 RMK A01 T00140011  RH  098%=      5-min Rain = 0
KCH1 080841Z 02006KT 01/01 A302 RMK A01 T00140011  RH  098%=      5-min Rain = 0
KCH1 080842Z 01007KT 02/01 A302 RMK A01 T00150011  RH  098%=      5-min Rain = 0
KCH1 080843Z 02007KT 01/01 A302 RMK A01 T00140011  RH  098%=      5-min Rain = 0
KCH1 080844Z 02007KT 01/01 A302 RMK A01 T00140011  RH  098%=      5-min Rain = 0.01
KCH1 080845Z 03007KT 01/01 A302 RMK A01 T00140010  RH  098%=      5-min Rain = 0
KCH1 080846Z 02006KT 01/01 A302 RMK A01 T00140011  RH  098%=      5-min Rain = 0
KCH1 080847Z 01007KT 01/01 A302 RMK A01 T00140010  RH  097%=      5-min Rain = 0
KCH1 080848Z 01006KT 01/01 A302 RMK A01 T00140010  RH  097%=      5-min Rain = 0
KCH1 080849Z 01005KT 01/01 A302 RMK A01 T00140010  RH  098%=      5-min Rain = 0
KCH1 080850Z 01006KT 01/01 A302 RMK A01 T00140010  RH  098%=      5-min Rain = 0
KCH1 080851Z 02005KT 01/01 A302 RMK A01 T00140011  RH  098%=      5-min Rain = 0
KCH1 080852Z 02005KT 01/01 A3019 RMK A01 T00140011  RH  098%=      5-min Rain = 0
KCH1 080853Z 02006KT 01/01 A3019 RMK A01 T00140011  RH  098%=      5-min Rain = 0
KCH1 080854Z 02007KT 01/01 A302 RMK A01 T00140011  RH  098%=      5-min Rain = 0
KCH1 080855Z 01005KT 01/01 A302 RMK A01 T00140011  RH  098%=      5-min Rain = 0
KCH1 080856Z 00005KT 01/01 A302 RMK A01 T00140011  RH  098%=      5-min Rain = 0
KCH1 080857Z 00006KT 01/01 A302 RMK A01 T00140011  RH  098%=      5-min Rain = 0
KCH1 080858Z 01006KT 01/01 A302 RMK A01 T00130011  RH  098%=      5-min Rain = 0.01
KCH1 080859Z 01007KT 01/01 A302 RMK A01 T00140011  RH  098%=      5-min Rain = 0
KCH1 080900Z 01007KT 01/01 A302 RMK A01 T00140011  RH  098%=      5-min Rain = 0
KCH1 080901Z 00006KT 01/01 A3019 RMK A01 T00140011  RH  098%=      5-min Rain = 0
KCH1 080902Z 01006KT 01/01 A3019 RMK A01 T00130011  RH  098%=      5-min Rain = 0
KCH1 080903Z 01010KT 01/01 A3019 RMK A01 T00140011  RH  098%=      5-min Rain = 0
KCH1 080904Z 02009KT 01/01 A3019 RMK A01 T00130011  RH  098%=      5-min Rain = 0
KCH1 080905Z 01007KT 01/01 A3019 RMK A01 T00130010  RH  098%=      5-min Rain = 0
KCH1 080906Z 01008KT 01/01 A3019 RMK A01 T00140010  RH  098%=      5-min Rain = 0
KCH1 080907Z 01009KT 01/01 A302 RMK A01 T00140011  RH  098%=      5-min Rain = 0
KCH1 080908Z 01009KT 01/01 A302 RMK A01 T00130010  RH  098%=      5-min Rain = 0.01
KCH1 080909Z 35006KT 01/01 A302 RMK A01 T00130010  RH  098%=      5-min Rain = 0
KCH1 080910Z 36007KT 01/01 A302 RMK A01 T00140010  RH  098%=      5-min Rain = 0
KCH1 080911Z 36007KT 01/01 A302 RMK A01 T00140010  RH  098%=      5-min Rain = 0
KCH1 080912Z 36008KT 01/01 A302 RMK A01 T00140010  RH  098%=      5-min Rain = 0
KCH1 080913Z 00008KT 01/01 A302 RMK A01 T00130010  RH  098%=      5-min Rain = 0
KCH1 080914Z 36007KT 01/01 A302 RMK A01 T00130010  RH  098%=      5-min Rain = 0
KCH1 080915Z 36006G11KT 01/01 A302 RMK A01 T00130010  RH  098%=      5-min Rain = 0
KCH1 080916Z 36006KT 01/01 A302 RMK A01 T00130010  RH  098%=      5-min Rain = 0
KCH1 080917Z 00008KT 01/01 A302 RMK A01 T00130010  RH  098%=      5-min Rain = 0
KCH1 080918Z 01009KT 01/01 A302 RMK A01 T00130010  RH  098%=      5-min Rain = 0
KCH1 080919Z 01008KT 01/01 A302 RMK A01 T00130009  RH  098%=      5-min Rain = 0
KCH1 080920Z 01007KT 01/01 A302 RMK A01 T00130009  RH  098%=      5-min Rain = 0
KCH1 080921Z 00007KT 01/01 A302 RMK A01 T00130009  RH  098%=      5-min Rain = 0.01
KCH1 080922Z 01005KT 01/01 A302 RMK A01 T00130009  RH  098%=      5-min Rain = 0
KCH1 080923Z 01006KT 01/01 A302 RMK A01 T00130009  RH  098%=      5-min Rain = 0
KCH1 080924Z 02007KT 01/01 A302 RMK A01 T00130009  RH  098%=      5-min Rain = 0
KCH1 080925Z 01006KT 01/01 A302 RMK A01 T00130009  RH  098%=      5-min Rain = 0
KCH1 080926Z 01005KT 01/01 A302 RMK A01 T00130009  RH  098%=      5-min Rain = 0
KCH1 080927Z 01005KT 01/01 A302 RMK A01 T00130010  RH  098%=      5-min Rain = 0
KCH1 080928Z 01005KT 01/01 A302 RMK A01 T00130010  RH  098%=      5-min Rain = 0
KCH1 080929Z 01010G15KT 01/01 A302 RMK A01 T00130010  RH  098%=      5-min Rain = 0
KCH1 080930Z 02006KT 01/01 A302 RMK A01 T00120009  RH  098%=      5-min Rain = 0.01
KCH1 080931Z 01008KT 01/01 A302 RMK A01 T00120009  RH  098%=      5-min Rain = 0
KCH1 080932Z 01007KT 01/01 A302 RMK A01 T00120009  RH  098%=      5-min Rain = 0
KCH1 080933Z 00007KT 01/01 A302 RMK A01 T00120009  RH  098%=      5-min Rain = 0
KCH1 080934Z 01005KT 01/01 A3021 RMK A01 T00120009  RH  098%=      5-min Rain = 0
KCH1 080935Z 00006KT 01/01 A3021 RMK A01 T00120009  RH  098%=      5-min Rain = 0
KCH1 080936Z 00006KT 01/01 A3021 RMK A01 T00120009  RH  098%=      5-min Rain = 0
KCH1 080937Z 01005KT 01/01 A3021 RMK A01 T00120009  RH  098%=      5-min Rain = 0
KCH1 080938Z 35005KT 01/01 A3021 RMK A01 T00120009  RH  098%=      5-min Rain = 0.01
KCH1 080939Z 35004KT 01/01 A3021 RMK A01 T00120009  RH  098%=      5-min Rain = 0
KCH1 080940Z 34005KT 01/01 A3021 RMK A01 T00120009  RH  098%=      5-min Rain = 0
KCH1 080941Z 00005KT 01/01 A3021 RMK A01 T00120009  RH  098%=      5-min Rain = 0
KCH1 080942Z 35005KT 01/01 A3021 RMK A01 T00120009  RH  098%=      5-min Rain = 0
KCH1 080943Z 35005KT 01/01 A3021 RMK A01 T00120009  RH  098%=      5-min Rain = 0
KCH1 080944Z 35003KT 01/01 A3021 RMK A01 T00120009  RH  098%=      5-min Rain = 0
KCH1 080945Z 35004KT 01/01 A3021 RMK A01 T00120009  RH  098%=      5-min Rain = 0
KCH1 080946Z 34006KT 01/01 A3021 RMK A01 T00120009  RH  098%=      5-min Rain = 0
KCH1 080947Z 34004KT 01/01 A3021 RMK A01 T00120009  RH  098%=      5-min Rain = 0
KCH1 080948Z 35004KT 01/01 A3021 RMK A01 T00120009  RH  098%=      5-min Rain = 0
KCH1 080949Z 35005KT 01/01 A3021 RMK A01 T00120009  RH  098%=      5-min Rain = 0.01
KCH1 080950Z 35006KT 01/01 A3021 RMK A01 T00120009  RH  098%=      5-min Rain = 0
KCH1 080951Z 35006KT 01/01 A3021 RMK A01 T00110009  RH  098%=      5-min Rain = 0
KCH1 080952Z 35008KT 01/01 A3021 RMK A01 T00110009  RH  098%=      5-min Rain = 0
KCH1 080953Z 36006KT 01/01 A3021 RMK A01 T00110008  RH  098%=      5-min Rain = 0
KCH1 080954Z 35006KT 01/01 A3021 RMK A01 T00110008  RH  098%=      5-min Rain = 0
KCH1 080955Z 36007KT 01/01 A3021 RMK A01 T00110008  RH  098%=      5-min Rain = 0
KCH1 080956Z 36007KT 01/01 A3021 RMK A01 T00110008  RH  098%=      5-min Rain = 0
KCH1 080957Z 36007KT 01/01 A3021 RMK A01 T00110008  RH  098%=      5-min Rain = 0
KCH1 080958Z 00007KT 01/01 A3021 RMK A01 T00110008  RH  098%=      5-min Rain = 0.01
KCH1 080959Z 00006KT 01/01 A3021 RMK A01 T00110008  RH  098%=      5-min Rain = 0
KCH1 081000Z 00006KT 01/01 A3021 RMK A01 T00110008  RH  098%=      5-min Rain = 0
KCH1 081001Z 35005KT 01/01 A3021 RMK A01 T00110008  RH  098%=      5-min Rain = 0
KCH1 081002Z 35006KT 01/01 A3021 RMK A01 T00110008  RH  098%=      5-min Rain = 0
KCH1 081003Z 00006KT 01/01 A3021 RMK A01 T00110008  RH  098%=      5-min Rain = 0
KCH1 081004Z 35006KT 01/01 A3021 RMK A01 T00110008  RH  098%=      5-min Rain = 0
KCH1 081005Z 35007KT 01/01 A3021 RMK A01 T00110008  RH  098%=      5-min Rain = 0
KCH1 081006Z 35007KT 01/01 A3021 RMK A01 T00110008  RH  098%=      5-min Rain = 0.01
KCH1 081007Z 35008KT 01/01 A3021 RMK A01 T00100008  RH  098%=      5-min Rain = 0
KCH1 081008Z 35008KT 01/01 A3021 RMK A01 T00100008  RH  098%=      5-min Rain = 0
KCH1 081009Z 34005KT 01/01 A3021 RMK A01 T00100008  RH  098%=      5-min Rain = 0
KCH1 081010Z 00007KT 01/01 A3021 RMK A01 T00100008  RH  098%=      5-min Rain = 0
KCH1 081011Z 34007KT 01/01 A3021 RMK A01 T00110008  RH  098%=      5-min Rain = 0
KCH1 081012Z 35007KT 01/01 A3021 RMK A01 T00100008  RH  098%=      5-min Rain = 0
KCH1 081013Z 36008KT 01/01 A3021 RMK A01 T00110008  RH  098%=      5-min Rain = 0
KCH1 081014Z 36009KT 01/01 A3021 RMK A01 T00100008  RH  098%=      5-min Rain = 0.01
KCH1 081015Z 00008KT 01/01 A3021 RMK A01 T00100008  RH  098%=      5-min Rain = 0
KCH1 081016Z 00009KT 01/01 A3021 RMK A01 T00100008  RH  098%=      5-min Rain = 0
KCH1 081017Z 00008KT 01/01 A302 RMK A01 T00100008  RH  098%=      5-min Rain = 0
KCH1 081018Z 36010KT 01/01 A302 RMK A01 T00110008  RH  098%=      5-min Rain = 0
KCH1 081019Z 00009KT 01/01 A302 RMK A01 T00100007  RH  098%=      5-min Rain = 0
KCH1 081020Z 01009G14KT 01/01 A302 RMK A01 T00100007  RH  098%=      5-min Rain = 0
KCH1 081021Z 01009KT 01/01 A302 RMK A01 T00100007  RH  098%=      5-min Rain = 0
KCH1 081022Z 00008KT 01/01 A302 RMK A01 T00100007  RH  098%=      5-min Rain = 0
KCH1 081023Z 01008KT 01/01 A302 RMK A01 T00100007  RH  098%=      5-min Rain = 0
KCH1 081024Z 01007KT 01/01 A302 RMK A01 T00100007  RH  098%=      5-min Rain = 0
KCH1 081025Z 01007KT 01/01 A302 RMK A01 T00100007  RH  098%=      5-min Rain = 0
KCH1 081026Z 02007KT 01/01 A302 RMK A01 T00100007  RH  098%=      5-min Rain = 0
KCH1 081027Z 01008KT 01/01 A302 RMK A01 T00100007  RH  098%=      5-min Rain = 0
KCH1 081028Z 01008G13KT 01/01 A302 RMK A01 T00100007  RH  098%=      5-min Rain = 0.01
KCH1 081029Z 00010KT 01/01 A302 RMK A01 T00100008  RH  098%=      5-min Rain = 0
KCH1 081030Z 00010KT 01/01 A302 RMK A01 T00100007  RH  098%=      5-min Rain = 0
KCH1 081031Z 01011KT 01/01 A302 RMK A01 T00100007  RH  098%=      5-min Rain = 0
KCH1 081032Z 01009KT 01/01 A302 RMK A01 T00100007  RH  098%=      5-min Rain = 0
KCH1 081033Z 01010KT 01/01 A302 RMK A01 T00100007  RH  098%=      5-min Rain = 0
KCH1 081034Z 01010KT 01/01 A302 RMK A01 T00100007  RH  098%=      5-min Rain = 0
KCH1 081035Z 01010G15KT 01/01 A302 RMK A01 T00100007  RH  098%=      5-min Rain = 0
KCH1 081036Z 01008KT 01/01 A302 RMK A01 T00100007  RH  098%=      5-min Rain = 0
KCH1 081037Z 01009KT 01/01 A302 RMK A01 T00100007  RH  098%=      5-min Rain = 0.01
KCH1 081038Z 01005KT 01/01 A302 RMK A01 T00100007  RH  098%=      5-min Rain = 0
KCH1 081039Z 01008KT 01/01 A302 RMK A01 T00100007  RH  098%=      5-min Rain = 0
KCH1 081040Z 01005KT 01/01 A302 RMK A01 T00100007  RH  098%=      5-min Rain = 0
KCH1 081041Z 01008KT 01/01 A302 RMK A01 T00100007  RH  098%=      5-min Rain = 0
KCH1 081042Z 02006KT 01/01 A302 RMK A01 T00100007  RH  098%=      5-min Rain = 0
KCH1 081043Z 02008KT 01/01 A302 RMK A01 T00100007  RH  098%=      5-min Rain = 0
KCH1 081044Z 02006KT 01/01 A302 RMK A01 T00100007  RH  098%=      5-min Rain = 0
KCH1 081045Z 02008KT 01/01 A302 RMK A01 T00100007  RH  098%=      5-min Rain = 0.01
KCH1 081046Z 01008KT 01/01 A302 RMK A01 T00100007  RH  098%=      5-min Rain = 0
KCH1 081047Z 01007KT 01/01 A302 RMK A01 T00100008  RH  098%=      5-min Rain = 0
KCH1 081048Z 02007KT 01/01 A302 RMK A01 T00090007  RH  098%=      5-min Rain = 0
KCH1 081049Z 01011KT 01/01 A302 RMK A01 T00090007  RH  098%=      5-min Rain = 0
KCH1 081050Z 01009KT 01/01 A302 RMK A01 T00090007  RH  098%=      5-min Rain = 0
KCH1 081051Z 01009KT 01/01 A302 RMK A01 T00090007  RH  098%=      5-min Rain = 0
KCH1 081052Z 00009KT 01/01 A302 RMK A01 T00100007  RH  098%=      5-min Rain = 0.01
KCH1 081053Z 01008KT 01/01 A302 RMK A01 T00090007  RH  098%=      5-min Rain = 0
KCH1 081054Z 01009KT 01/01 A302 RMK A01 T00090007  RH  098%=      5-min Rain = 0
KCH1 081055Z 02013KT 01/01 A302 RMK A01 T00100007  RH  098%=      5-min Rain = 0
KCH1 081056Z 01010KT 01/01 A302 RMK A01 T00090007  RH  098%=      5-min Rain = 0
KCH1 081057Z 02007KT 01/01 A302 RMK A01 T00100007  RH  098%=      5-min Rain = 0
KCH1 081058Z 03006KT 01/01 A302 RMK A01 T00090007  RH  098%=      5-min Rain = 0
KCH1 081059Z 02009KT 01/01 A3021 RMK A01 T00090007  RH  098%=      5-min Rain = 0
KCH1 081100Z 03007KT 01/01 A3021 RMK A01 T00090007  RH  098%=      5-min Rain = 0.01
KCH1 081101Z 02006KT 01/01 A3021 RMK A01 T00100007  RH  098%=      5-min Rain = 0
KCH1 081102Z 02007KT 01/01 A3021 RMK A01 T00090007  RH  098%=      5-min Rain = 0
KCH1 081103Z 01009KT 01/01 A3021 RMK A01 T00090007  RH  098%=      5-min Rain = 0
KCH1 081104Z 00009KT 01/01 A3021 RMK A01 T00090007  RH  098%=      5-min Rain = 0
KCH1 081105Z 02004KT 01/01 A3021 RMK A01 T00090006  RH  098%=      5-min Rain = 0
KCH1 081106Z 00007KT 01/01 A3021 RMK A01 T00090006  RH  098%=      5-min Rain = 0
KCH1 081107Z 36006G11KT 01/01 A3021 RMK A01 T00090006  RH  098%=      5-min Rain = 0
KCH1 081108Z 01008KT 01/01 A3021 RMK A01 T00090006  RH  098%=      5-min Rain = 0
KCH1 081109Z 02009KT 01/01 A3021 RMK A01 T00090006  RH  098%=      5-min Rain = 0
KCH1 081110Z 02007KT 01/01 A3021 RMK A01 T00090006  RH  098%=      5-min Rain = 0.01
KCH1 081111Z 01007KT 01/01 A3021 RMK A01 T00090006  RH  098%=      5-min Rain = 0
KCH1 081112Z 01006KT 01/01 A3021 RMK A01 T00090006  RH  098%=      5-min Rain = 0
KCH1 081113Z 00005KT 01/01 A3021 RMK A01 T00090006  RH  098%=      5-min Rain = 0
KCH1 081114Z 01005KT 01/01 A3021 RMK A01 T00090007  RH  098%=      5-min Rain = 0
KCH1 081115Z 01005KT 01/01 A3021 RMK A01 T00090006  RH  098%=      5-min Rain = 0
KCH1 081116Z 01006KT 01/01 A3021 RMK A01 T00090007  RH  098%=      5-min Rain = 0
KCH1 081117Z 35006KT 01/01 A3021 RMK A01 T00090006  RH  098%=      5-min Rain = 0
KCH1 081118Z 36008KT 01/01 A3021 RMK A01 T00090007  RH  098%=      5-min Rain = 0
KCH1 081119Z 01004KT 01/01 A3021 RMK A01 T00090007  RH  098%=      5-min Rain = 0
KCH1 081120Z 01005KT 01/01 A3021 RMK A01 T00090007  RH  098%=      5-min Rain = 0
KCH1 081121Z 02007KT 01/01 A3022 RMK A01 T00090007  RH  098%=      5-min Rain = 0
KCH1 081122Z 01008KT 01/01 A3022 RMK A01 T00090007  RH  098%=      5-min Rain = 0
KCH1 081123Z 02010KT 01/01 A3022 RMK A01 T00090007  RH  098%=      5-min Rain = 0.01
KCH1 081124Z 01007KT 01/01 A3022 RMK A01 T00090006  RH  098%=      5-min Rain = 0
KCH1 081125Z 02005KT 01/01 A3022 RMK A01 T00090006  RH  098%=      5-min Rain = 0
KCH1 081126Z 02007KT 01/01 A3022 RMK A01 T00090006  RH  098%=      5-min Rain = 0
KCH1 081127Z 00009KT 01/01 A3022 RMK A01 T00090006  RH  098%=      5-min Rain = 0
KCH1 081128Z 01008KT 01/01 A3022 RMK A01 T00090006  RH  098%=      5-min Rain = 0
KCH1 081129Z 01007KT 01/01 A3022 RMK A01 T00090006  RH  098%=      5-min Rain = 0
KCH1 081130Z 02005KT 01/01 A3022 RMK A01 T00090006  RH  098%=      5-min Rain = 0
KCH1 081131Z 36004KT 01/01 A3022 RMK A01 T00090006  RH  098%=      5-min Rain = 0
KCH1 081132Z 00006KT 01/01 A3022 RMK A01 T00090006  RH  098%=      5-min Rain = 0
KCH1 081133Z 02005KT 01/01 A3022 RMK A01 T00090006  RH  098%=      5-min Rain = 0
KCH1 081134Z 01006KT 01/01 A3022 RMK A01 T00090006  RH  098%=      5-min Rain = 0
KCH1 081135Z 34007KT 01/01 A3022 RMK A01 T00090006  RH  098%=      5-min Rain = 0
KCH1 081136Z 00007KT 01/01 A3022 RMK A01 T00090007  RH  098%=      5-min Rain = 0
KCH1 081137Z 00005KT 01/01 A3022 RMK A01 T00090006  RH  098%=      5-min Rain = 0
KCH1 081138Z 35006KT 01/01 A3022 RMK A01 T00090007  RH  098%=      5-min Rain = 0
KCH1 081139Z 00007KT 01/01 A3022 RMK A01 T00090007  RH  098%=      5-min Rain = 0.01
KCH1 081140Z 00006KT 01/01 A3022 RMK A01 T00090007  RH  098%=      5-min Rain = 0
KCH1 081141Z 00007KT 01/01 A3022 RMK A01 T00090007  RH  098%=      5-min Rain = 0
KCH1 081142Z 36009KT 01/01 A3022 RMK A01 T00090007  RH  098%=      5-min Rain = 0
KCH1 081143Z 01007KT 01/01 A3022 RMK A01 T00090007  RH  098%=      5-min Rain = 0
KCH1 081144Z 36007KT 01/01 A3022 RMK A01 T00100007  RH  098%=      5-min Rain = 0
KCH1 081145Z 35007KT 01/01 A3022 RMK A01 T00090007  RH  098%=      5-min Rain = 0
KCH1 081146Z 35007KT 01/01 A3022 RMK A01 T00090007  RH  098%=      5-min Rain = 0
KCH1 081147Z 35008KT 01/01 A3023 RMK A01 T00100007  RH  098%=      5-min Rain = 0
KCH1 081148Z 36009KT 01/01 A3023 RMK A01 T00090007  RH  098%=      5-min Rain = 0.01
KCH1 081149Z 00008KT 01/01 A3023 RMK A01 T00090007  RH  098%=      5-min Rain = 0
KCH1 081150Z 35007KT 01/01 A3023 RMK A01 T00090007  RH  098%=      5-min Rain = 0
KCH1 081151Z 01006KT 01/01 A3023 RMK A01 T00100007  RH  098%=      5-min Rain = 0
KCH1 081152Z 00008KT 01/01 A3023 RMK A01 T00090007  RH  098%=      5-min Rain = 0
KCH1 081153Z 00006KT 01/01 A3023 RMK A01 T00090007  RH  098%=      5-min Rain = 0
KCH1 081154Z 01007G12KT 01/01 A3023 RMK A01 T00090007  RH  098%=      5-min Rain = 0.01
KCH1 081155Z 01006KT 01/01 A3023 RMK A01 T00090007  RH  098%=      5-min Rain = 0
KCH1 081156Z 36008KT 01/01 A3023 RMK A01 T00090006  RH  098%=      5-min Rain = 0
KCH1 081157Z 00006KT 01/01 A3023 RMK A01 T00090006  RH  098%=      5-min Rain = 0
KCH1 081158Z 00007KT 01/01 A3023 RMK A01 T00090006  RH  098%=      5-min Rain = 0.01
KCH1 081159Z 36005KT 01/01 A3023 RMK A01 T00090006  RH  098%=      5-min Rain = 0
KCH1 081200Z 35006KT 01/01 A3023 RMK A01 T00090006  RH  098%=      5-min Rain = 0
KCH1 081201Z 00005KT 01/01 A3023 RMK A01 T00090007  RH  098%=      5-min Rain = 0.01
KCH1 081202Z 35005KT 01/01 A3023 RMK A01 T00090007  RH  098%=      5-min Rain = 0
KCH1 081203Z 35007KT 01/01 A3023 RMK A01 T00090007  RH  098%=      5-min Rain = 0.01
KCH1 081204Z 35006KT 01/01 A3023 RMK A01 T00090007  RH  098%=      5-min Rain = 0
KCH1 081205Z 36008KT 01/01 A3023 RMK A01 T00090007  RH  098%=      5-min Rain = 0
KCH1 081206Z 35006KT 01/01 A3023 RMK A01 T00090007  RH  098%=      5-min Rain = 0.01
KCH1 081207Z 35007KT 01/01 A3023 RMK A01 T00090007  RH  098%=      5-min Rain = 0
KCH1 081208Z 00008KT 01/01 A3023 RMK A01 T00090007  RH  099%=      5-min Rain = 0.01
KCH1 081209Z 01007KT 01/01 A3023 RMK A01 T00090007  RH  098%=      5-min Rain = 0
KCH1 081210Z 00008KT 01/01 A3023 RMK A01 T00090007  RH  099%=      5-min Rain = 0
KCH1 081211Z 01006KT 01/01 A3023 RMK A01 T00090007  RH  099%=      5-min Rain = 0.01
KCH1 081212Z 01007KT 01/01 A3023 RMK A01 T00090007  RH  099%=      5-min Rain = 0
KCH1 081213Z 01007KT 01/01 A3023 RMK A01 T00090007  RH  099%=      5-min Rain = 0
KCH1 081214Z 00008KT 01/01 A3023 RMK A01 T00090007  RH  099%=      5-min Rain = 0.01
KCH1 081215Z 01006KT 01/01 A3023 RMK A01 T00090007  RH  099%=      5-min Rain = 0
KCH1 081216Z 00006KT 01/01 A3023 RMK A01 T00090007  RH  099%=      5-min Rain = 0
KCH1 081217Z 36004KT 01/01 A3023 RMK A01 T00080007  RH  099%=      5-min Rain = 0.01
KCH1 081218Z 00005KT 01/01 A3023 RMK A01 T00090007  RH  099%=      5-min Rain = 0
KCH1 081219Z 35007KT 01/01 A3023 RMK A01 T00090007  RH  099%=      5-min Rain = 0
KCH1 081220Z 36006KT 01/01 A3023 RMK A01 T00090007  RH  099%=      5-min Rain = 0
KCH1 081221Z 35007KT 01/01 A3023 RMK A01 T00080007  RH  099%=      5-min Rain = 0.01
KCH1 081222Z 35008KT 01/01 A3023 RMK A01 T00090007  RH  099%=      5-min Rain = 0
KCH1 081223Z 36008KT 01/01 A3023 RMK A01 T00080007  RH  099%=      5-min Rain = 0
KCH1 081224Z 00007KT 01/01 A3023 RMK A01 T00090007  RH  099%=      5-min Rain = 0
KCH1 081225Z 01008KT 01/01 A3023 RMK A01 T00090007  RH  099%=      5-min Rain = 0.01
KCH1 081226Z 01009KT 01/01 A3023 RMK A01 T00080007  RH  099%=      5-min Rain = 0
KCH1 081227Z 01008KT 01/01 A3023 RMK A01 T00090007  RH  099%=      5-min Rain = 0
KCH1 081228Z 01008G13KT 01/01 A3023 RMK A01 T00090007  RH  099%=      5-min Rain = 0
KCH1 081229Z 01009KT 01/01 A3023 RMK A01 T00090007  RH  099%=      5-min Rain = 0
KCH1 081230Z 02008KT 01/01 A3023 RMK A01 T00090007  RH  099%=      5-min Rain = 0.01
KCH1 081231Z 01006KT 01/01 A3023 RMK A01 T00090007  RH  099%=      5-min Rain = 0
KCH1 081232Z 01009KT 01/01 A3023 RMK A01 T00090007  RH  099%=      5-min Rain = 0
KCH1 081233Z 01008KT 01/01 A3023 RMK A01 T00090007  RH  099%=      5-min Rain = 0
KCH1 081234Z 01008KT 01/01 A3022 RMK A01 T00090007  RH  099%=      5-min Rain = 0.01
KCH1 081235Z 01009KT 01/01 A3022 RMK A01 T00090007  RH  099%=      5-min Rain = 0
KCH1 081236Z 01008KT 01/01 A3023 RMK A01 T00090007  RH  099%=      5-min Rain = 0
KCH1 081237Z 01008KT 01/01 A3023 RMK A01 T00090007  RH  099%=      5-min Rain = 0
KCH1 081238Z 00007KT 01/01 A3023 RMK A01 T00090007  RH  099%=      5-min Rain = 0
KCH1 081239Z 00007KT 01/01 A3023 RMK A01 T00090007  RH  099%=      5-min Rain = 0.01
KCH1 081240Z 01006KT 01/01 A3023 RMK A01 T00090007  RH  099%=      5-min Rain = 0
KCH1 081241Z 01009KT 01/01 A3023 RMK A01 T00090007  RH  099%=      5-min Rain = 0
KCH1 081242Z 01009KT 01/01 A3023 RMK A01 T00090007  RH  099%=      5-min Rain = 0
KCH1 081243Z 01010KT 01/01 A3023 RMK A01 T00090007  RH  099%=      5-min Rain = 0.01
KCH1 081244Z 01009KT 01/01 A3023 RMK A01 T00090007  RH  099%=      5-min Rain = 0
KCH1 081245Z 01008KT 01/01 A3023 RMK A01 T00090007  RH  098%=      5-min Rain = 0
KCH1 081246Z 01006KT 01/01 A3023 RMK A01 T00090007  RH  098%=      5-min Rain = 0.01
KCH1 081247Z 01006KT 01/01 A3023 RMK A01 T00090007  RH  098%=      5-min Rain = 0
KCH1 081248Z 01007KT 01/01 A3023 RMK A01 T00090007  RH  098%=      5-min Rain = 0.01
KCH1 081249Z 01009KT 01/01 A3023 RMK A01 T00090007  RH  098%=      5-min Rain = 0
KCH1 081250Z 01009KT 01/01 A3023 RMK A01 T00090007  RH  098%=      5-min Rain = 0
KCH1 081251Z 01006KT 01/01 A3023 RMK A01 T00090007  RH  098%=      5-min Rain = 0.01
KCH1 081252Z 01007KT 01/01 A3023 RMK A01 T00090007  RH  098%=      5-min Rain = 0
KCH1 081253Z 01009KT 01/01 A3023 RMK A01 T00090007  RH  098%=      5-min Rain = 0
KCH1 081254Z 02009KT 01/01 A3023 RMK A01 T00090006  RH  098%=      5-min Rain = 0.01
KCH1 081255Z 02013KT 01/01 A3023 RMK A01 T00090006  RH  098%=      5-min Rain = 0
KCH1 081256Z 01009KT 01/01 A3023 RMK A01 T00080006  RH  098%=      5-min Rain = 0
KCH1 081257Z 01006KT 01/01 A3023 RMK A01 T00090006  RH  098%=      5-min Rain = 0.01
KCH1 081258Z 01006KT 01/01 A3023 RMK A01 T00080006  RH  098%=      5-min Rain = 0
KCH1 081259Z 02006KT 01/01 A3023 RMK A01 T00080006  RH  098%=      5-min Rain = 0
KCH1 081300Z 02010KT 01/01 A3024 RMK A01 T00080006  RH  098%=      5-min Rain = 0.01
KCH1 081301Z 01009KT 01/01 A3024 RMK A01 T00080006  RH  098%=      5-min Rain = 0
KCH1 081302Z 00009KT 01/01 A3024 RMK A01 T00080006  RH  098%=      5-min Rain = 0
KCH1 081303Z 01007KT 01/01 A3024 RMK A01 T00090006  RH  098%=      5-min Rain = 0.01
KCH1 081304Z 01005KT 01/01 A3024 RMK A01 T00090006  RH  098%=      5-min Rain = 0
KCH1 081305Z 01005KT 01/01 A3024 RMK A01 T00090006  RH  098%=      5-min Rain = 0
KCH1 081306Z 01008KT 01/01 A3024 RMK A01 T00090006  RH  098%=      5-min Rain = 0.01
KCH1 081307Z 02009KT 01/01 A3024 RMK A01 T00080006  RH  098%=      5-min Rain = 0
KCH1 081308Z 02006KT 01/01 A3024 RMK A01 T00080006  RH  098%=      5-min Rain = 0
KCH1 081309Z 01007KT 01/01 A3024 RMK A01 T00090006  RH  098%=      5-min Rain = 0
KCH1 081310Z 01008KT 01/01 A3024 RMK A01 T00090007  RH  098%=      5-min Rain = 0.01
KCH1 081311Z 01009KT 01/01 A3024 RMK A01 T00080006  RH  098%=      5-min Rain = 0
KCH1 081312Z 02007KT 01/01 A3024 RMK A01 T00090006  RH  098%=      5-min Rain = 0
KCH1 081313Z 01005KT 01/01 A3024 RMK A01 T00080006  RH  098%=      5-min Rain = 0.01
KCH1 081314Z 01005KT 01/01 A3024 RMK A01 T00090006  RH  098%=      5-min Rain = 0
KCH1 081315Z 00007KT 01/01 A3024 RMK A01 T00090006  RH  098%=      5-min Rain = 0
KCH1 081316Z 01007KT 01/01 A3024 RMK A01 T00090006  RH  098%=      5-min Rain = 0
KCH1 081317Z 01007KT 01/01 A3024 RMK A01 T00090006  RH  098%=      5-min Rain = 0.01
KCH1 081318Z 01007KT 01/01 A3024 RMK A01 T00090006  RH  098%=      5-min Rain = 0
KCH1 081319Z 00006KT 01/01 A3025 RMK A01 T00080006  RH  099%=      5-min Rain = 0
KCH1 081320Z 01008KT 01/01 A3025 RMK A01 T00090007  RH  099%=      5-min Rain = 0.01
KCH1 081321Z 00009KT 01/01 A3025 RMK A01 T00090006  RH  099%=      5-min Rain = 0
KCH1 081322Z 01008KT 01/01 A3025 RMK A01 T00080006  RH  099%=      5-min Rain = 0
KCH1 081323Z 01007KT 01/01 A3025 RMK A01 T00080006  RH  098%=      5-min Rain = 0
KCH1 081324Z 02008KT 01/01 A3025 RMK A01 T00090006  RH  099%=      5-min Rain = 0
KCH1 081325Z 01006KT 01/01 A3025 RMK A01 T00090007  RH  099%=      5-min Rain = 0.01
KCH1 081326Z 01008KT 01/01 A3025 RMK A01 T00080006  RH  098%=      5-min Rain = 0
KCH1 081327Z 01007KT 01/01 A3025 RMK A01 T00080006  RH  098%=      5-min Rain = 0
KCH1 081328Z 01009KT 01/01 A3025 RMK A01 T00090007  RH  099%=      5-min Rain = 0
KCH1 081329Z 02009KT 01/01 A3025 RMK A01 T00080006  RH  099%=      5-min Rain = 0
KCH1 081330Z 02008KT 01/01 A3025 RMK A01 T00090006  RH  098%=      5-min Rain = 0
KCH1 081331Z 01009KT 01/01 A3025 RMK A01 T00090007  RH  098%=      5-min Rain = 0
KCH1 081332Z 01009KT 01/01 A3025 RMK A01 T00090007  RH  098%=      5-min Rain = 0
KCH1 081333Z 02008KT 01/01 A3025 RMK A01 T00090007  RH  098%=      5-min Rain = 0.01
KCH1 081334Z 02008KT 01/01 A3025 RMK A01 T00090007  RH  098%=      5-min Rain = 0
KCH1 081335Z 02007KT 01/01 A3025 RMK A01 T00090007  RH  098%=      5-min Rain = 0
KCH1 081336Z 02006KT 01/01 A3025 RMK A01 T00090007  RH  098%=      5-min Rain = 0
KCH1 081337Z 01007KT 01/01 A3025 RMK A01 T00090007  RH  098%=      5-min Rain = 0
KCH1 081338Z 01007KT 01/01 A3025 RMK A01 T00090007  RH  098%=      5-min Rain = 0
KCH1 081339Z 01005KT 01/01 A3025 RMK A01 T00090007  RH  098%=      5-min Rain = 0
KCH1 081340Z 01005KT 01/01 A3025 RMK A01 T00090007  RH  098%=      5-min Rain = 0
KCH1 081341Z 01005KT 01/01 A3025 RMK A01 T00090007  RH  099%=      5-min Rain = 0
KCH1 081342Z 01006KT 01/01 A3025 RMK A01 T00100007  RH  099%=      5-min Rain = 0.01
KCH1 081343Z 01006KT 01/01 A3025 RMK A01 T00100008  RH  099%=      5-min Rain = 0
KCH1 081344Z 35007G12KT 01/01 A3025 RMK A01 T00100008  RH  099%=      5-min Rain = 0
KCH1 081345Z 36009KT 01/01 A3025 RMK A01 T00100008  RH  099%=      5-min Rain = 0.01
KCH1 081346Z 01008KT 01/01 A3025 RMK A01 T00090007  RH  099%=      5-min Rain = 0
KCH1 081347Z 01006KT 01/01 A3025 RMK A01 T00090008  RH  099%=      5-min Rain = 0
KCH1 081348Z 00005KT 01/01 A3026 RMK A01 T00100008  RH  099%=      5-min Rain = 0
KCH1 081349Z 01008KT 01/01 A3026 RMK A01 T00100008  RH  099%=      5-min Rain = 0
KCH1 081350Z 02009KT 01/01 A3026 RMK A01 T00090007  RH  099%=      5-min Rain = 0.01
KCH1 081351Z 00007KT 01/01 A3026 RMK A01 T00100008  RH  099%=      5-min Rain = 0
KCH1 081352Z 01007KT 01/01 A3026 RMK A01 T00090008  RH  099%=      5-min Rain = 0
KCH1 081353Z 01009KT 01/01 A3026 RMK A01 T00090008  RH  099%=      5-min Rain = 0
KCH1 081354Z 00010KT 01/01 A3026 RMK A01 T00090008  RH  099%=      5-min Rain = 0
KCH1 081355Z 01011KT 01/01 A3026 RMK A01 T00090007  RH  099%=      5-min Rain = 0
KCH1 081356Z 01010KT 01/01 A3026 RMK A01 T00090007  RH  098%=      5-min Rain = 0.01
KCH1 081357Z 01009KT 01/01 A3026 RMK A01 T00090006  RH  098%=      5-min Rain = 0
KCH1 081358Z 01006KT 01/01 A3026 RMK A01 T00090007  RH  098%=      5-min Rain = 0
KCH1 081359Z 01006KT 01/01 A3026 RMK A01 T00090006  RH  098%=      5-min Rain = 0
KCH1 081400Z 01007KT 01/01 A3026 RMK A01 T00090007  RH  098%=      5-min Rain = 0
KCH1 081401Z 36005KT 01/01 A3026 RMK A01 T00090007  RH  098%=      5-min Rain = 0
KCH1 081402Z 36005KT 01/01 A3026 RMK A01 T00100007  RH  098%=      5-min Rain = 0
KCH1 081403Z 36007KT 01/01 A3026 RMK A01 T00090007  RH  098%=      5-min Rain = 0.01
KCH1 081404Z 00006KT 01/01 A3026 RMK A01 T00100007  RH  098%=      5-min Rain = 0
KCH1 081405Z 35006KT 01/01 A3027 RMK A01 T00100007  RH  098%=      5-min Rain = 0
KCH1 081406Z 00008KT 01/01 A3027 RMK A01 T00100007  RH  098%=      5-min Rain = 0
KCH1 081407Z 00008KT 01/01 A3027 RMK A01 T00090007  RH  098%=      5-min Rain = 0
KCH1 081408Z 36007KT 01/01 A3027 RMK A01 T00090007  RH  098%=      5-min Rain = 0
KCH1 081409Z 36008KT 01/01 A3027 RMK A01 T00090007  RH  098%=      5-min Rain = 0.01
KCH1 081410Z 01006KT 01/01 A3027 RMK A01 T00090007  RH  098%=      5-min Rain = 0
KCH1 081411Z 01006KT 01/01 A3026 RMK A01 T00090007  RH  098%=      5-min Rain = 0
KCH1 081412Z 01006KT 01/01 A3026 RMK A01 T00090007  RH  098%=      5-min Rain = 0
KCH1 081413Z 02006KT 01/01 A3026 RMK A01 T00090007  RH  098%=      5-min Rain = 0
KCH1 081414Z 02007KT 01/01 A3026 RMK A01 T00090007  RH  098%=      5-min Rain = 0.01
KCH1 081415Z 01007KT 01/01 A3026 RMK A01 T00100007  RH  098%=      5-min Rain = 0
KCH1 081416Z 02005KT 01/01 A3026 RMK A01 T00090007  RH  098%=      5-min Rain = 0
KCH1 081417Z 01006KT 01/01 A3026 RMK A01 T00100007  RH  098%=      5-min Rain = 0
KCH1 081418Z 01008KT 01/01 A3026 RMK A01 T00100007  RH  098%=      5-min Rain = 0
KCH1 081419Z 01005KT 01/01 A3026 RMK A01 T00100007  RH  098%=      5-min Rain = 0
KCH1 081420Z 01006KT 01/01 A3027 RMK A01 T00100008  RH  098%=      5-min Rain = 0
KCH1 081421Z 01007KT 01/01 A3027 RMK A01 T00100008  RH  098%=      5-min Rain = 0.01
KCH1 081422Z 01005KT 01/01 A3027 RMK A01 T00100008  RH  098%=      5-min Rain = 0
KCH1 081423Z 00006KT 01/01 A3027 RMK A01 T00100008  RH  098%=      5-min Rain = 0
KCH1 081424Z 35006KT 01/01 A3027 RMK A01 T00100008  RH  098%=      5-min Rain = 0
KCH1 081425Z 36005KT 01/01 A3027 RMK A01 T00100008  RH  098%=      5-min Rain = 0
KCH1 081426Z 01005KT 01/01 A3027 RMK A01 T00110009  RH  098%=      5-min Rain = 0
KCH1 081427Z 36008KT 01/01 A3027 RMK A01 T00110009  RH  099%=      5-min Rain = 0
KCH1 081428Z 35008KT 01/01 A3027 RMK A01 T00110009  RH  098%=      5-min Rain = 0
KCH1 081429Z 00010KT 01/01 A3027 RMK A01 T00110009  RH  098%=      5-min Rain = 0
KCH1 081430Z 36009KT 01/01 A3027 RMK A01 T00110009  RH  098%=      5-min Rain = 0
KCH1 081431Z 01009KT 01/01 A3027 RMK A01 T00120009  RH  098%=      5-min Rain = 0
KCH1 081432Z 36006KT 01/01 A3027 RMK A01 T00120009  RH  098%=      5-min Rain = 0
KCH1 081433Z 01006KT 01/01 A3027 RMK A01 T00120010  RH  098%=      5-min Rain = 0
KCH1 081434Z 02008KT 01/01 A3027 RMK A01 T00130010  RH  098%=      5-min Rain = 0
KCH1 081435Z 01005KT 01/01 A3027 RMK A01 T00130010  RH  098%=      5-min Rain = 0
KCH1 081436Z 00005KT 01/01 A3027 RMK A01 T00130010  RH  098%=      5-min Rain = 0
KCH1 081437Z 01006KT 01/01 A3027 RMK A01 T00140011  RH  098%=      5-min Rain = 0
KCH1 081438Z 02007KT 01/01 A3027 RMK A01 T00140011  RH  098%=      5-min Rain = 0
KCH1 081439Z 01006KT 01/01 A3027 RMK A01 T00140011  RH  098%=      5-min Rain = 0
KCH1 081440Z 01006KT 01/01 A3027 RMK A01 T00140011  RH  098%=      5-min Rain = 0
KCH1 081441Z 00007KT 01/01 A3027 RMK A01 T00140011  RH  098%=      5-min Rain = 0
KCH1 081442Z 00006KT 01/01 A3027 RMK A01 T00130010  RH  098%=      5-min Rain = 0
KCH1 081443Z 36006KT 01/01 A3027 RMK A01 T00130010  RH  098%=      5-min Rain = 0
KCH1 081444Z 36004KT 01/01 A3027 RMK A01 T00130010  RH  098%=      5-min Rain = 0
KCH1 081445Z 35005KT 01/01 A3027 RMK A01 T00130010  RH  098%=      5-min Rain = 0
KCH1 081446Z 34004KT 01/01 A3027 RMK A01 T00140011  RH  098%=      5-min Rain = 0
KCH1 081447Z 35005KT 01/01 A3027 RMK A01 T00140011  RH  098%=      5-min Rain = 0
KCH1 081448Z 34006KT 01/01 A3027 RMK A01 T00140011  RH  098%=      5-min Rain = 0
KCH1 081449Z 34009KT 01/01 A3027 RMK A01 T00140011  RH  098%=      5-min Rain = 0
KCH1 081450Z 34007KT 02/01 A3027 RMK A01 T00150012  RH  098%=      5-min Rain = 0
KCH1 081451Z 35007KT 02/01 A3027 RMK A01 T00150012  RH  098%=      5-min Rain = 0
KCH1 081452Z 34008KT 02/01 A3027 RMK A01 T00150012  RH  098%=      5-min Rain = 0
KCH1 081453Z 35009KT 02/01 A3028 RMK A01 T00150012  RH  098%=      5-min Rain = 0
KCH1 081454Z 36008KT 02/01 A3028 RMK A01 T00150012  RH  098%=      5-min Rain = 0
KCH1 081455Z 36006KT 02/01 A3028 RMK A01 T00150012  RH  098%=      5-min Rain = 0
KCH1 081456Z 36005KT 02/01 A3028 RMK A01 T00160012  RH  098%=      5-min Rain = 0
KCH1 081457Z 36006KT 02/01 A3028 RMK A01 T00160012  RH  098%=      5-min Rain = 0
KCH1 081458Z 36006KT 02/01 A3028 RMK A01 T00150012  RH  097%=      5-min Rain = 0
KCH1 081459Z 35007KT 02/01 A3028 RMK A01 T00150012  RH  097%=      5-min Rain = 0
KCH1 081500Z 34006KT 02/01 A3028 RMK A01 T00160012  RH  097%=      5-min Rain = 0
KCH1 081501Z 35005KT 02/01 A3028 RMK A01 T00160012  RH  097%=      5-min Rain = 0
KCH1 081502Z 36005KT 02/01 A3028 RMK A01 T00170013  RH  097%=      5-min Rain = 0
KCH1 081503Z 36004KT 02/01 A3028 RMK A01 T00170014  RH  098%=      5-min Rain = 0
KCH1 081504Z 35004KT 02/01 A3028 RMK A01 T00180014  RH  098%=      5-min Rain = 0
KCH1 081505Z 36004KT 02/02 A3028 RMK A01 T00180015  RH  098%=      5-min Rain = 0
KCH1 081506Z 36006KT 02/02 A3028 RMK A01 T00180015  RH  098%=      5-min Rain = 0
KCH1 081507Z 35007KT 02/02 A3028 RMK A01 T00180015  RH  098%=      5-min Rain = 0
KCH1 081508Z 35006KT 02/01 A3028 RMK A01 T00180014  RH  098%=      5-min Rain = 0
KCH1 081509Z 36007KT 02/01 A3028 RMK A01 T00180014  RH  098%=      5-min Rain = 0
KCH1 081510Z 01007KT 02/01 A3028 RMK A01 T00180014  RH  097%=      5-min Rain = 0
KCH1 081511Z 01005KT 02/01 A3028 RMK A01 T00180014  RH  097%=      5-min Rain = 0
KCH1 081512Z 35006KT 02/01 A3028 RMK A01 T00180014  RH  098%=      5-min Rain = 0
KCH1 081513Z 34007KT 02/01 A3028 RMK A01 T00180014  RH  097%=      5-min Rain = 0.01
KCH1 081514Z 34007KT 02/01 A3028 RMK A01 T00180014  RH  097%=      5-min Rain = 0
KCH1 081515Z 36006KT 02/01 A3028 RMK A01 T00180014  RH  097%=      5-min Rain = 0
KCH1 081516Z 36006KT 02/01 A3028 RMK A01 T00180014  RH  097%=      5-min Rain = 0
KCH1 081517Z 00005KT 02/02 A3028 RMK A01 T00180015  RH  097%=      5-min Rain = 0
KCH1 081518Z 36005KT 02/01 A3028 RMK A01 T00180014  RH  097%=      5-min Rain = 0
KCH1 081519Z 35006KT 02/02 A3028 RMK A01 T00180015  RH  098%=      5-min Rain = 0
KCH1 081520Z 36005KT 02/02 A3028 RMK A01 T00190015  RH  098%=      5-min Rain = 0
KCH1 081521Z 35006KT 02/02 A3028 RMK A01 T00180015  RH  097%=      5-min Rain = 0.01
KCH1 081522Z 01009KT 02/02 A3028 RMK A01 T00190015  RH  097%=      5-min Rain = 0
KCH1 081523Z 36008KT 02/01 A3028 RMK A01 T00180014  RH  097%=      5-min Rain = 0
KCH1 081524Z 00008KT 02/01 A3028 RMK A01 T00170013  RH  097%=      5-min Rain = 0
KCH1 081525Z 35008KT 02/01 A3028 RMK A01 T00170012  RH  097%=      5-min Rain = 0
KCH1 081526Z 01010KT 02/01 A3028 RMK A01 T00160011  RH  096%=      5-min Rain = 0
KCH1 081527Z 01007KT 02/01 A3028 RMK A01 T00160011  RH  096%=      5-min Rain = 0
KCH1 081528Z 00008KT 02/01 A3029 RMK A01 T00160011  RH  096%=      5-min Rain = 0
KCH1 081529Z 01007KT 02/01 A3029 RMK A01 T00170012  RH  097%=      5-min Rain = 0
KCH1 081530Z 01008KT 02/01 A3029 RMK A01 T00170012  RH  097%=      5-min Rain = 0.01
KCH1 081531Z 01007KT 02/01 A3029 RMK A01 T00170012  RH  097%=      5-min Rain = 0
KCH1 081532Z 01007KT 02/01 A3029 RMK A01 T00170012  RH  097%=      5-min Rain = 0
KCH1 081533Z 01009KT 02/01 A3029 RMK A01 T00170013  RH  097%=      5-min Rain = 0
KCH1 081534Z 35007KT 02/01 A3029 RMK A01 T00170012  RH  097%=      5-min Rain = 0
KCH1 081535Z 00007KT 02/01 A3029 RMK A01 T00170012  RH  097%=      5-min Rain = 0
KCH1 081536Z 00008KT 02/01 A3029 RMK A01 T00180013  RH  097%=      5-min Rain = 0
KCH1 081537Z 01006KT 02/01 A3029 RMK A01 T00180013  RH  097%=      5-min Rain = 0
KCH1 081538Z 00009KT 02/01 A3029 RMK A01 T00180013  RH  097%=      5-min Rain = 0.01
KCH1 081539Z 01007KT 02/01 A3029 RMK A01 T00190014  RH  097%=      5-min Rain = 0
KCH1 081540Z 01007KT 02/01 A3029 RMK A01 T00180014  RH  097%=      5-min Rain = 0
KCH1 081541Z 01008KT 02/01 A3029 RMK A01 T00180014  RH  097%=      5-min Rain = 0
KCH1 081542Z 00007KT 02/01 A3029 RMK A01 T00190014  RH  097%=      5-min Rain = 0
KCH1 081543Z 01007KT 02/01 A3029 RMK A01 T00190014  RH  097%=      5-min Rain = 0
KCH1 081544Z 35007KT 02/02 A3029 RMK A01 T00200015  RH  097%=      5-min Rain = 0
KCH1 081545Z 36008KT 02/01 A3029 RMK A01 T00190013  RH  096%=      5-min Rain = 0
KCH1 081546Z 35008KT 02/01 A3029 RMK A01 T00190013  RH  096%=      5-min Rain = 0
KCH1 081547Z 00008KT 02/01 A3029 RMK A01 T00190014  RH  097%=      5-min Rain = 0
KCH1 081548Z 00006KT 02/01 A3029 RMK A01 T00190014  RH  097%=      5-min Rain = 0
KCH1 081549Z 36007KT 02/02 A3029 RMK A01 T00200015  RH  097%=      5-min Rain = 0
KCH1 081550Z 35008KT 02/02 A3029 RMK A01 T00200015  RH  097%=      5-min Rain = 0
KCH1 081551Z 35008KT 02/02 A3029 RMK A01 T00200015  RH  097%=      5-min Rain = 0
KCH1 081552Z 35007KT 02/02 A3029 RMK A01 T00200015  RH  097%=      5-min Rain = 0.01
KCH1 081553Z 35009KT 02/02 A3029 RMK A01 T00200015  RH  097%=      5-min Rain = 0
KCH1 081554Z 36009KT 02/02 A3029 RMK A01 T00200015  RH  097%=      5-min Rain = 0
KCH1 081555Z 00008KT 02/01 A3029 RMK A01 T00190014  RH  096%=      5-min Rain = 0
KCH1 081556Z 36007KT 02/02 A3029 RMK A01 T00200015  RH  097%=      5-min Rain = 0
KCH1 081557Z 36008KT 02/02 A3029 RMK A01 T00200016  RH  097%=      5-min Rain = 0
KCH1 081558Z 01006KT 02/02 A3029 RMK A01 T00200016  RH  097%=      5-min Rain = 0
KCH1 081559Z 01008KT 02/02 A3029 RMK A01 T00210017  RH  097%=      5-min Rain = 0
KCH1 081600Z 01009KT 02/02 A3029 RMK A01 T00210016  RH  097%=      5-min Rain = 0
KCH1 081601Z 02006KT 02/02 A3029 RMK A01 T00200015  RH  097%=      5-min Rain = 0
KCH1 081602Z 00010KT 02/02 A3029 RMK A01 T00200016  RH  097%=      5-min Rain = 0
KCH1 081603Z 01010KT 02/02 A3029 RMK A01 T00200015  RH  097%=      5-min Rain = 0
KCH1 081604Z 00008KT 02/01 A303 RMK A01 T00190013  RH  096%=      5-min Rain = 0
KCH1 081605Z 01007KT 02/01 A303 RMK A01 T00190014  RH  096%=      5-min Rain = 0
KCH1 081606Z 00009KT 02/01 A303 RMK A01 T00190014  RH  097%=      5-min Rain = 0
KCH1 081607Z 01008KT 02/01 A3029 RMK A01 T00190014  RH  096%=      5-min Rain = 0
KCH1 081608Z 00010KT 02/01 A303 RMK A01 T00190013  RH  096%=      5-min Rain = 0
KCH1 081609Z 00008KT 02/01 A303 RMK A01 T00180012  RH  096%=      5-min Rain = 0
KCH1 081610Z 36006KT 02/01 A303 RMK A01 T00180013  RH  096%=      5-min Rain = 0
KCH1 081611Z 00009KT 02/01 A3029 RMK A01 T00190014  RH  096%=      5-min Rain = 0
KCH1 081612Z 00011KT 02/01 A3029 RMK A01 T00180012  RH  096%=      5-min Rain = 0
KCH1 081613Z 00009KT 02/01 A3029 RMK A01 T00180012  RH  096%=      5-min Rain = 0
KCH1 081614Z 01009KT 02/01 A3029 RMK A01 T00180012  RH  096%=      5-min Rain = 0
KCH1 081615Z 01010KT 02/01 A3029 RMK A01 T00180012  RH  096%=      5-min Rain = 0
KCH1 081616Z 36009KT 02/01 A303 RMK A01 T00180012  RH  096%=      5-min Rain = 0
KCH1 081617Z 01010KT 02/01 A303 RMK A01 T00170011  RH  096%=      5-min Rain = 0
KCH1 081618Z 01011KT 02/01 A303 RMK A01 T00180011  RH  096%=      5-min Rain = 0
KCH1 081619Z 01007KT 02/01 A303 RMK A01 T00170010  RH  095%=      5-min Rain = 0
KCH1 081620Z 02009KT 02/01 A303 RMK A01 T00170010  RH  095%=      5-min Rain = 0
KCH1 081621Z 36008KT 02/01 A3029 RMK A01 T00180011  RH  096%=      5-min Rain = 0
KCH1 081622Z 00008KT 02/01 A3029 RMK A01 T00180011  RH  096%=      5-min Rain = 0
KCH1 081623Z 35007KT 02/01 A3029 RMK A01 T00180012  RH  096%=      5-min Rain = 0
KCH1 081624Z 36009KT 02/01 A303 RMK A01 T00180012  RH  096%=      5-min Rain = 0
KCH1 081625Z 00010KT 02/01 A303 RMK A01 T00180012  RH  096%=      5-min Rain = 0
KCH1 081626Z 00007KT 02/01 A303 RMK A01 T00180012  RH  096%=      5-min Rain = 0
KCH1 081627Z 35007KT 02/01 A303 RMK A01 T00180013  RH  096%=      5-min Rain = 0
KCH1 081628Z 00012KT 02/01 A303 RMK A01 T00190013  RH  096%=      5-min Rain = 0
KCH1 081629Z 00010KT 02/01 A303 RMK A01 T00180013  RH  096%=      5-min Rain = 0
KCH1 081630Z 36011KT 02/01 A303 RMK A01 T00180012  RH  096%=      5-min Rain = 0
KCH1 081631Z 01011KT 02/01 A303 RMK A01 T00180011  RH  096%=      5-min Rain = 0
KCH1 081632Z 01010KT 02/01 A303 RMK A01 T00170011  RH  095%=      5-min Rain = 0
KCH1 081633Z 02011KT 02/01 A3029 RMK A01 T00170011  RH  095%=      5-min Rain = 0
KCH1 081634Z 01007KT 02/01 A303 RMK A01 T00170011  RH  095%=      5-min Rain = 0
KCH1 081635Z 01007KT 02/01 A303 RMK A01 T00180012  RH  096%=      5-min Rain = 0
KCH1 081636Z 00007KT 02/01 A303 RMK A01 T00180013  RH  096%=      5-min Rain = 0
KCH1 081637Z 01006KT 02/01 A303 RMK A01 T00180013  RH  096%=      5-min Rain = 0
KCH1 081638Z 36008KT 02/01 A303 RMK A01 T00180013  RH  096%=      5-min Rain = 0
KCH1 081639Z 36008KT 02/01 A303 RMK A01 T00190013  RH  096%=      5-min Rain = 0
KCH1 081640Z 36006KT 02/01 A303 RMK A01 T00190014  RH  096%=      5-min Rain = 0
KCH1 081641Z 00006KT 02/02 A303 RMK A01 T00200015  RH  097%=      5-min Rain = 0
KCH1 081642Z 01009KT 02/02 A303 RMK A01 T00190015  RH  097%=      5-min Rain = 0
KCH1 081643Z 00005KT 02/02 A303 RMK A01 T00190015  RH  097%=      5-min Rain = 0
KCH1 081644Z 35005KT 02/02 A303 RMK A01 T00200015  RH  097%=      5-min Rain = 0
KCH1 081645Z 35008KT 02/02 A303 RMK A01 T00200016  RH  097%=      5-min Rain = 0
KCH1 081646Z 35008KT 02/01 A303 RMK A01 T00190014  RH  096%=      5-min Rain = 0
KCH1 081647Z 35005KT 02/01 A303 RMK A01 T00190013  RH  096%=      5-min Rain = 0
KCH1 081648Z 00007KT 02/01 A303 RMK A01 T00190014  RH  097%=      5-min Rain = 0
KCH1 081649Z 35008KT 02/01 A303 RMK A01 T00190014  RH  097%=      5-min Rain = 0
KCH1 081650Z 35008KT 02/01 A303 RMK A01 T00190014  RH  096%=      5-min Rain = 0
KCH1 081651Z 36007KT 02/01 A303 RMK A01 T00190012  RH  096%=      5-min Rain = 0
KCH1 081652Z 36008G13KT 02/01 A303 RMK A01 T00190013  RH  096%=      5-min Rain = 0
KCH1 081653Z 36010KT 02/01 A303 RMK A01 T00190012  RH  096%=      5-min Rain = 0
KCH1 081654Z 00009KT 02/01 A303 RMK A01 T00180011  RH  095%=      5-min Rain = 0.01
KCH1 081655Z 35010KT 02/01 A303 RMK A01 T00180011  RH  095%=      5-min Rain = 0
KCH1 081656Z 36010KT 02/01 A303 RMK A01 T00180010  RH  095%=      5-min Rain = 0
KCH1 081657Z 00007KT 02/01 A303 RMK A01 T00180010  RH  094%=      5-min Rain = 0
KCH1 081658Z 01007KT 02/01 A303 RMK A01 T00190011  RH  095%=      5-min Rain = 0
KCH1 081659Z 36007KT 02/01 A303 RMK A01 T00190012  RH  095%=      5-min Rain = 0
KCH1 081700Z 36006KT 02/01 A303 RMK A01 T00190013  RH  095%=      5-min Rain = 0
KCH1 081701Z 35008KT 02/01 A303 RMK A01 T00190012  RH  095%=      5-min Rain = 0
KCH1 081702Z 01006KT 02/01 A303 RMK A01 T00190012  RH  095%=      5-min Rain = 0
KCH1 081703Z 35005KT 02/01 A303 RMK A01 T00200013  RH  096%=      5-min Rain = 0
KCH1 081704Z 34009KT 02/02 A303 RMK A01 T00210015  RH  096%=      5-min Rain = 0
KCH1 081705Z 35008KT 02/01 A303 RMK A01 T00200014  RH  096%=      5-min Rain = 0
KCH1 081706Z 35011KT 02/01 A303 RMK A01 T00200013  RH  095%=      5-min Rain = 0
KCH1 081707Z 35011KT 02/01 A303 RMK A01 T00190010  RH  094%=      5-min Rain = 0
KCH1 081708Z 36010KT 02/01 A303 RMK A01 T00180009  RH  094%=      5-min Rain = 0
KCH1 081709Z 36010KT 02/01 A303 RMK A01 T00180009  RH  094%=      5-min Rain = 0
KCH1 081710Z 35006KT 02/01 A303 RMK A01 T00180009  RH  094%=      5-min Rain = 0
KCH1 081711Z 35007KT 02/01 A303 RMK A01 T00190011  RH  094%=      5-min Rain = 0
KCH1 081712Z 36009KT 02/01 A303 RMK A01 T00200012  RH  095%=      5-min Rain = 0
KCH1 081713Z 35008G13KT 02/01 A303 RMK A01 T00200012  RH  095%=      5-min Rain = 0
KCH1 081714Z 35009KT 02/01 A303 RMK A01 T00200012  RH  095%=      5-min Rain = 0
KCH1 081715Z 35010KT 02/01 A303 RMK A01 T00200012  RH  094%=      5-min Rain = 0
KCH1 081716Z 35010KT 02/01 A303 RMK A01 T00200011  RH  094%=      5-min Rain = 0
KCH1 081717Z 36007KT 02/01 A303 RMK A01 T00200011  RH  094%=      5-min Rain = 0
KCH1 081718Z 35009KT 02/01 A303 RMK A01 T00200012  RH  094%=      5-min Rain = 0
KCH1 081719Z 36007KT 02/01 A303 RMK A01 T00210012  RH  094%=      5-min Rain = 0
KCH1 081720Z 01007KT 02/01 A303 RMK A01 T00210013  RH  094%=      5-min Rain = 0
KCH1 081721Z 36007KT 02/01 A303 RMK A01 T00210014  RH  095%=      5-min Rain = 0
KCH1 081722Z 36009KT 02/02 A303 RMK A01 T00220015  RH  095%=      5-min Rain = 0
KCH1 081723Z 35013KT 02/01 A303 RMK A01 T00220013  RH  094%=      5-min Rain = 0
KCH1 081724Z 35012KT 02/01 A303 RMK A01 T00210011  RH  093%=      5-min Rain = 0
KCH1 081725Z 36011G16KT 02/01 A303 RMK A01 T00200010  RH  093%=      5-min Rain = 0
KCH1 081726Z 00010KT 02/01 A303 RMK A01 T00200010  RH  093%=      5-min Rain = 0
KCH1 081727Z 00008KT 02/01 A303 RMK A01 T00200011  RH  094%=      5-min Rain = 0
KCH1 081728Z 36010KT 02/01 A303 RMK A01 T00210013  RH  094%=      5-min Rain = 0
KCH1 081729Z 35008KT 02/01 A3029 RMK A01 T00210012  RH  094%=      5-min Rain = 0
KCH1 081730Z 35007KT 02/01 A3029 RMK A01 T00210011  RH  094%=      5-min Rain = 0
KCH1 081731Z 36009KT 02/01 A3029 RMK A01 T00210012  RH  094%=      5-min Rain = 0
KCH1 081732Z 35008KT 02/01 A3029 RMK A01 T00210013  RH  094%=      5-min Rain = 0
KCH1 081733Z 34009G14KT 02/01 A3029 RMK A01 T00220014  RH  094%=      5-min Rain = 0
KCH1 081734Z 34012KT 02/01 A3029 RMK A01 T00210012  RH  094%=      5-min Rain = 0
KCH1 081735Z 34009KT 02/01 A3029 RMK A01 T00200009  RH  093%=      5-min Rain = 0
KCH1 081736Z 34011KT 02/01 A3029 RMK A01 T00190009  RH  093%=      5-min Rain = 0
KCH1 081737Z 35009KT 02/01 A3029 RMK A01 T00190009  RH  093%=      5-min Rain = 0
KCH1 081738Z 35007KT 02/01 A3029 RMK A01 T00190010  RH  094%=      5-min Rain = 0
KCH1 081739Z 36006KT 02/01 A3029 RMK A01 T00200011  RH  094%=      5-min Rain = 0
KCH1 081740Z 35007KT 02/01 A3029 RMK A01 T00210014  RH  095%=      5-min Rain = 0
KCH1 081741Z 36009KT 02/02 A3029 RMK A01 T00220015  RH  095%=      5-min Rain = 0
KCH1 081742Z 36010KT 02/01 A3029 RMK A01 T00210013  RH  094%=      5-min Rain = 0
KCH1 081743Z 34009KT 02/01 A3029 RMK A01 T00210012  RH  094%=      5-min Rain = 0
KCH1 081744Z 35007KT 02/01 A3029 RMK A01 T00210012  RH  094%=      5-min Rain = 0
KCH1 081745Z 00008KT 02/01 A3029 RMK A01 T00220013  RH  094%=      5-min Rain = 0
KCH1 081746Z 35010G15KT 02/01 A3029 RMK A01 T00220013  RH  094%=      5-min Rain = 0
KCH1 081747Z 35011KT 02/01 A3029 RMK A01 T00220013  RH  094%=      5-min Rain = 0
KCH1 081748Z 34011KT 02/01 A3029 RMK A01 T00210012  RH  093%=      5-min Rain = 0
KCH1 081749Z 34011KT 02/01 A3029 RMK A01 T00210010  RH  093%=      5-min Rain = 0
KCH1 081750Z 35009KT 02/01 A3029 RMK A01 T00200011  RH  093%=      5-min Rain = 0
KCH1 081751Z 34009G14KT 02/01 A3029 RMK A01 T00210012  RH  094%=      5-min Rain = 0
KCH1 081752Z 35011KT 02/01 A3029 RMK A01 T00210012  RH  094%=      5-min Rain = 0
KCH1 081753Z 35012KT 02/01 A3029 RMK A01 T00200011  RH  093%=      5-min Rain = 0
KCH1 081754Z 35012KT 02/01 A3029 RMK A01 T00200010  RH  093%=      5-min Rain = 0
KCH1 081755Z 35010KT 02/01 A3029 RMK A01 T00200009  RH  093%=      5-min Rain = 0
KCH1 081756Z 00012KT 02/01 A3029 RMK A01 T00200009  RH  093%=      5-min Rain = 0
KCH1 081757Z 36010KT 02/01 A3029 RMK A01 T00200009  RH  093%=      5-min Rain = 0
KCH1 081758Z 35010KT 02/01 A3029 RMK A01 T00200010  RH  093%=      5-min Rain = 0
KCH1 081759Z 00009KT 02/01 A3029 RMK A01 T00200010  RH  093%=      5-min Rain = 0
KCH1 081800Z 00009KT 02/01 A3029 RMK A01 T00210011  RH  094%=      5-min Rain = 0
KCH1 081801Z 36007KT 02/01 A3029 RMK A01 T00210011  RH  093%=      5-min Rain = 0
KCH1 081802Z 00009KT 02/01 A3029 RMK A01 T00220014  RH  094%=      5-min Rain = 0
KCH1 081803Z 36012KT 02/01 A3029 RMK A01 T00220013  RH  093%=      5-min Rain = 0
KCH1 081804Z 35011KT 02/01 A3029 RMK A01 T00220011  RH  093%=      5-min Rain = 0
KCH1 081805Z 01012KT 02/01 A3029 RMK A01 T00210010  RH  092%=      5-min Rain = 0
KCH1 081806Z 00015KT 02/01 A3029 RMK A01 T00210009  RH  092%=      5-min Rain = 0
KCH1 081807Z 35012KT 02/01 A3029 RMK A01 T00200007  RH  092%=      5-min Rain = 0
KCH1 081808Z 35011KT 02/01 A3029 RMK A01 T00200008  RH  092%=      5-min Rain = 0
KCH1 081809Z 00012G17KT 02/01 A3028 RMK A01 T00190006  RH  091%=      5-min Rain = 0
KCH1 081810Z 35013KT 02/01 A3028 RMK A01 T00190006  RH  091%=      5-min Rain = 0
KCH1 081811Z 00012KT 02/01 A3028 RMK A01 T00190007  RH  092%=      5-min Rain = 0
KCH1 081812Z 00010KT 02/01 A3028 RMK A01 T00200009  RH  092%=      5-min Rain = 0
KCH1 081813Z 36011KT 02/01 A3028 RMK A01 T00210010  RH  093%=      5-min Rain = 0
KCH1 081814Z 01011KT 02/01 A3028 RMK A01 T00210010  RH  092%=      5-min Rain = 0
KCH1 081815Z 00010KT 02/01 A3028 RMK A01 T00220010  RH  092%=      5-min Rain = 0
KCH1 081816Z 34010KT 02/01 A3028 RMK A01 T00220009  RH  092%=      5-min Rain = 0
KCH1 081817Z 36013KT 02/01 A3028 RMK A01 T00210009  RH  091%=      5-min Rain = 0
KCH1 081818Z 35008KT 02/01 A3028 RMK A01 T00210009  RH  091%=      5-min Rain = 0
KCH1 081819Z 35012KT 02/01 A3028 RMK A01 T00220010  RH  092%=      5-min Rain = 0
KCH1 081820Z 35010KT 02/01 A3028 RMK A01 T00220009  RH  092%=      5-min Rain = 0
KCH1 081821Z 35009KT 02/01 A3028 RMK A01 T00220010  RH  092%=      5-min Rain = 0
KCH1 081822Z 34009KT 02/01 A3028 RMK A01 T00230011  RH  092%=      5-min Rain = 0
KCH1 081823Z 34010KT 02/01 A3028 RMK A01 T00230011  RH  092%=      5-min Rain = 0
KCH1 081824Z 34011KT 02/01 A3028 RMK A01 T00230010  RH  091%=      5-min Rain = 0
KCH1 081825Z 35011KT 02/01 A3028 RMK A01 T00220008  RH  091%=      5-min Rain = 0
KCH1 081826Z 34011KT 02/01 A3028 RMK A01 T00220009  RH  091%=      5-min Rain = 0
KCH1 081827Z 35010KT 02/01 A3028 RMK A01 T00220009  RH  091%=      5-min Rain = 0
KCH1 081828Z 35010G15KT 02/01 A3028 RMK A01 T00220009  RH  091%=      5-min Rain = 0
KCH1 081829Z 35010KT 02/01 A3028 RMK A01 T00220008  RH  091%=      5-min Rain = 0
KCH1 081830Z 35010G15KT 02/01 A3028 RMK A01 T00220008  RH  091%=      5-min Rain = 0
KCH1 081831Z 35008KT 02/01 A3028 RMK A01 T00220009  RH  091%=      5-min Rain = 0
KCH1 081832Z 35010KT 02/01 A3028 RMK A01 T00230011  RH  092%=      5-min Rain = 0
KCH1 081833Z 35011KT 02/01 A3027 RMK A01 T00230010  RH  091%=      5-min Rain = 0
KCH1 081834Z 35010KT 02/01 A3027 RMK A01 T00230010  RH  091%=      5-min Rain = 0
KCH1 081835Z 35007KT 02/01 A3027 RMK A01 T00240011  RH  091%=      5-min Rain = 0
KCH1 081836Z 35006KT 02/01 A3027 RMK A01 T00240013  RH  092%=      5-min Rain = 0
KCH1 081837Z 33007G13KT 03/01 A3027 RMK A01 T00250013  RH  092%=      5-min Rain = 0
KCH1 081838Z 34008KT 03/01 A3027 RMK A01 T00250013  RH  092%=      5-min Rain = 0
KCH1 081839Z 33007KT 03/01 A3027 RMK A01 T00250012  RH  091%=      5-min Rain = 0
KCH1 081840Z 35007G12KT 02/01 A3027 RMK A01 T00240011  RH  091%=      5-min Rain = 0
KCH1 081841Z 35010KT 03/01 A3027 RMK A01 T00250012  RH  092%=      5-min Rain = 0
KCH1 081842Z 35009G14KT 02/01 A3027 RMK A01 T00240011  RH  091%=      5-min Rain = 0
KCH1 081843Z 00012KT 02/01 A3027 RMK A01 T00240011  RH  091%=      5-min Rain = 0
KCH1 081844Z 00011KT 02/01 A3027 RMK A01 T00240010  RH  091%=      5-min Rain = 0
KCH1 081845Z 00009KT 02/01 A3026 RMK A01 T00230009  RH  090%=      5-min Rain = 0
KCH1 081846Z 35009G14KT 02/01 A3027 RMK A01 T00230010  RH  091%=      5-min Rain = 0
KCH1 081847Z 34012KT 02/01 A3026 RMK A01 T00230011  RH  092%=      5-min Rain = 0
KCH1 081848Z 35011KT 02/01 A3026 RMK A01 T00230010  RH  091%=      5-min Rain = 0
KCH1 081849Z 34011G16KT 02/01 A3026 RMK A01 T00230009  RH  091%=      5-min Rain = 0
KCH1 081850Z 34011KT 02/01 A3027 RMK A01 T00230009  RH  091%=      5-min Rain = 0
KCH1 081851Z 34011KT 02/01 A3027 RMK A01 T00220008  RH  090%=      5-min Rain = 0
KCH1 081852Z 36010G16KT 02/01 A3027 RMK A01 T00230009  RH  091%=      5-min Rain = 0
KCH1 081853Z 36010KT 02/01 A3027 RMK A01 T00230008  RH  090%=      5-min Rain = 0
KCH1 081854Z 36011KT 02/01 A3027 RMK A01 T00220007  RH  089%=      5-min Rain = 0
KCH1 081855Z 35011KT 02/01 A3027 RMK A01 T00220007  RH  090%=      5-min Rain = 0
KCH1 081856Z 34011KT 02/01 A3027 RMK A01 T00220007  RH  090%=      5-min Rain = 0
KCH1 081857Z 34009KT 02/01 A3027 RMK A01 T00230009  RH  090%=      5-min Rain = 0
KCH1 081858Z 33011KT 02/01 A3027 RMK A01 T00240011  RH  091%=      5-min Rain = 0
KCH1 081859Z 34011KT 03/01 A3027 RMK A01 T00250010  RH  090%=      5-min Rain = 0
KCH1 081900Z 34012KT 02/01 A3027 RMK A01 T00240009  RH  090%=      5-min Rain = 0
KCH1 081901Z 34008KT 02/01 A3027 RMK A01 T00240008  RH  089%=      5-min Rain = 0
KCH1 081902Z 34006KT 03/01 A3027 RMK A01 T00250010  RH  090%=      5-min Rain = 0
KCH1 081903Z 34005KT 03/01 A3027 RMK A01 T00260014  RH  092%=      5-min Rain = 0
KCH1 081904Z 34007G13KT 03/02 A3027 RMK A01 T00280017  RH  092%=      5-min Rain = 0
KCH1 081905Z 33009KT 03/02 A3026 RMK A01 T00280015  RH  091%=      5-min Rain = 0
KCH1 081906Z 32009KT 03/01 A3026 RMK A01 T00260011  RH  090%=      5-min Rain = 0
KCH1 081907Z 34009KT 03/01 A3026 RMK A01 T00250010  RH  090%=      5-min Rain = 0
KCH1 081908Z 33010KT 03/01 A3026 RMK A01 T00250010  RH  090%=      5-min Rain = 0
KCH1 081909Z 34009KT 03/01 A3026 RMK A01 T00250011  RH  091%=      5-min Rain = 0
KCH1 081910Z 35008KT 03/01 A3026 RMK A01 T00250011  RH  091%=      5-min Rain = 0
KCH1 081911Z 35009KT 03/01 A3027 RMK A01 T00250012  RH  091%=      5-min Rain = 0
KCH1 081912Z 35010KT 03/01 A3027 RMK A01 T00250011  RH  091%=      5-min Rain = 0
KCH1 081913Z 34007KT 03/01 A3027 RMK A01 T00250010  RH  090%=      5-min Rain = 0
KCH1 081914Z 34007KT 03/01 A3027 RMK A01 T00250011  RH  091%=      5-min Rain = 0
KCH1 081915Z 33009KT 03/01 A3027 RMK A01 T00260012  RH  091%=      5-min Rain = 0
KCH1 081916Z 34009KT 03/01 A3026 RMK A01 T00260010  RH  089%=      5-min Rain = 0
KCH1 081917Z 35010KT 03/01 A3027 RMK A01 T00260010  RH  090%=      5-min Rain = 0
KCH1 081918Z 35011KT 03/01 A3027 RMK A01 T00250009  RH  089%=      5-min Rain = 0
KCH1 081919Z 35010KT 03/01 A3026 RMK A01 T00260009  RH  089%=      5-min Rain = 0
KCH1 081920Z 35011KT 03/01 A3026 RMK A01 T00250009  RH  089%=      5-min Rain = 0
KCH1 081921Z 35008KT 03/01 A3026 RMK A01 T00250009  RH  089%=      5-min Rain = 0
KCH1 081922Z 32010G15KT 03/01 A3027 RMK A01 T00250011  RH  090%=      5-min Rain = 0
KCH1 081923Z 33013KT 03/01 A3026 RMK A01 T00250010  RH  090%=      5-min Rain = 0
KCH1 081924Z 33012KT 02/01 A3027 RMK A01 T00240010  RH  090%=      5-min Rain = 0
KCH1 081925Z 35010KT 03/01 A3027 RMK A01 T00250011  RH  090%=      5-min Rain = 0
KCH1 081926Z 34009KT 02/01 A3027 RMK A01 T00240009  RH  090%=      5-min Rain = 0
KCH1 081927Z 32010KT 02/01 A3027 RMK A01 T00240010  RH  091%=      5-min Rain = 0
KCH1 081928Z 33013KT 02/01 A3027 RMK A01 T00230009  RH  090%=      5-min Rain = 0
KCH1 081929Z 32012KT 02/01 A3027 RMK A01 T00210007  RH  090%=      5-min Rain = 0
KCH1 081930Z 33010KT 02/01 A3027 RMK A01 T00200006  RH  090%=      5-min Rain = 0
KCH1 081931Z 33010KT 02/01 A3027 RMK A01 T00210007  RH  091%=      5-min Rain = 0
KCH1 081932Z 35010KT 02/01 A3027 RMK A01 T00220009  RH  091%=      5-min Rain = 0
KCH1 081933Z 34011KT 02/01 A3027 RMK A01 T00220010  RH  091%=      5-min Rain = 0
KCH1 081934Z 36009KT 02/01 A3027 RMK A01 T00230009  RH  091%=      5-min Rain = 0
KCH1 081935Z 35008KT 02/01 A3027 RMK A01 T00230009  RH  091%=      5-min Rain = 0
KCH1 081936Z 35010KT 02/01 A3027 RMK A01 T00230010  RH  091%=      5-min Rain = 0
KCH1 081937Z 36011KT 02/01 A3027 RMK A01 T00230009  RH  091%=      5-min Rain = 0
KCH1 081938Z 34010KT 02/01 A3027 RMK A01 T00220007  RH  090%=      5-min Rain = 0
KCH1 081939Z 33010KT 02/01 A3026 RMK A01 T00220007  RH  090%=      5-min Rain = 0
KCH1 081940Z 33010KT 02/01 A3026 RMK A01 T00220008  RH  091%=      5-min Rain = 0
KCH1 081941Z 33011KT 02/01 A3027 RMK A01 T00220008  RH  091%=      5-min Rain = 0
KCH1 081942Z 34012G17KT 02/01 A3027 RMK A01 T00220007  RH  090%=      5-min Rain = 0
KCH1 081943Z 36011KT 02/01 A3027 RMK A01 T00210006  RH  090%=      5-min Rain = 0
KCH1 081944Z 35009KT 02/01 A3027 RMK A01 T00210006  RH  090%=      5-min Rain = 0
KCH1 081945Z 34009KT 02/01 A3026 RMK A01 T00210006  RH  090%=      5-min Rain = 0
KCH1 081946Z 34009KT 02/01 A3026 RMK A01 T00220007  RH  090%=      5-min Rain = 0
KCH1 081947Z 34010KT 02/01 A3026 RMK A01 T00220007  RH  090%=      5-min Rain = 0
KCH1 081948Z 35010KT 02/01 A3026 RMK A01 T00220007  RH  090%=      5-min Rain = 0
KCH1 081949Z 35011KT 02/01 A3026 RMK A01 T00220007  RH  090%=      5-min Rain = 0
KCH1 081950Z 34009KT 02/01 A3026 RMK A01 T00220008  RH  090%=      5-min Rain = 0
KCH1 081951Z 34009KT 02/01 A3026 RMK A01 T00220009  RH  091%=      5-min Rain = 0
KCH1 081952Z 33011KT 02/01 A3026 RMK A01 T00220008  RH  090%=      5-min Rain = 0
KCH1 081953Z 34012KT 02/01 A3026 RMK A01 T00210007  RH  090%=      5-min Rain = 0
KCH1 081954Z 34010KT 02/01 A3026 RMK A01 T00200006  RH  090%=      5-min Rain = 0
KCH1 081955Z 35008KT 02/01 A3026 RMK A01 T00200007  RH  091%=      5-min Rain = 0
KCH1 081956Z 34009KT 02/01 A3026 RMK A01 T00210008  RH  092%=      5-min Rain = 0
KCH1 081957Z 34010KT 02/01 A3026 RMK A01 T00210009  RH  092%=      5-min Rain = 0
KCH1 081958Z 34010KT 02/01 A3026 RMK A01 T00210008  RH  091%=      5-min Rain = 0
KCH1 081959Z 34009KT 02/01 A3026 RMK A01 T00210008  RH  091%=      5-min Rain = 0
KCH1 082000Z 35008KT 02/01 A3026 RMK A01 T00210008  RH  091%=      5-min Rain = 0
KCH1 082001Z 35011KT 02/01 A3026 RMK A01 T00210008  RH  092%=      5-min Rain = 0
KCH1 082002Z 34010KT 02/01 A3026 RMK A01 T00210007  RH  091%=      5-min Rain = 0
KCH1 082003Z 34009KT 02/01 A3026 RMK A01 T00200006  RH  090%=      5-min Rain = 0
KCH1 082004Z 34010KT 02/01 A3026 RMK A01 T00210008  RH  091%=      5-min Rain = 0
KCH1 082005Z 34008KT 02/01 A3026 RMK A01 T00210007  RH  091%=      5-min Rain = 0
KCH1 082006Z 34014KT 02/01 A3026 RMK A01 T00220008  RH  091%=      5-min Rain = 0
KCH1 082007Z 34014KT 02/01 A3026 RMK A01 T00210006  RH  090%=      5-min Rain = 0
KCH1 082008Z 35010KT 02/00 A3026 RMK A01 T00200004  RH  089%=      5-min Rain = 0
KCH1 082009Z 35011KT 02/01 A3026 RMK A01 T00200005  RH  090%=      5-min Rain = 0
KCH1 082010Z 36012KT 02/01 A3026 RMK A01 T00200005  RH  090%=      5-min Rain = 0
KCH1 082011Z 35012KT 02/00 A3026 RMK A01 T00200004  RH  089%=      5-min Rain = 0
KCH1 082012Z 35012KT 02/00 A3026 RMK A01 T00190004  RH  089%=      5-min Rain = 0
KCH1 082013Z 34010KT 02/00 A3026 RMK A01 T00190004  RH  090%=      5-min Rain = 0
KCH1 082014Z 35010KT 02/01 A3026 RMK A01 T00190005  RH  090%=      5-min Rain = 0
KCH1 082015Z 00011KT 02/01 A3026 RMK A01 T00200005  RH  090%=      5-min Rain = 0
KCH1 082016Z 00008KT 02/01 A3026 RMK A01 T00200005  RH  090%=      5-min Rain = 0
KCH1 082017Z 36010KT 02/01 A3026 RMK A01 T00200005  RH  090%=      5-min Rain = 0
KCH1 082018Z 36009KT 02/01 A3026 RMK A01 T00200005  RH  090%=      5-min Rain = 0
KCH1 082019Z 36008KT 02/01 A3026 RMK A01 T00190005  RH  090%=      5-min Rain = 0
KCH1 082020Z 36010KT 02/01 A3026 RMK A01 T00200005  RH  090%=      5-min Rain = 0
KCH1 082021Z 35008KT 02/01 A3026 RMK A01 T00190005  RH  090%=      5-min Rain = 0
KCH1 082022Z 34007G16KT 02/01 A3026 RMK A01 T00200006  RH  091%=      5-min Rain = 0
KCH1 082023Z 35011KT 02/01 A3026 RMK A01 T00200006  RH  091%=      5-min Rain = 0
KCH1 082024Z 35009KT 02/01 A3026 RMK A01 T00190005  RH  090%=      5-min Rain = 0
KCH1 082025Z 33009KT 02/01 A3026 RMK A01 T00190006  RH  091%=      5-min Rain = 0
KCH1 082026Z 33012KT 02/01 A3026 RMK A01 T00190006  RH  091%=      5-min Rain = 0
KCH1 082027Z 35010KT 02/01 A3026 RMK A01 T00190005  RH  091%=      5-min Rain = 0
KCH1 082028Z 36012KT 02/01 A3026 RMK A01 T00190005  RH  091%=      5-min Rain = 0
KCH1 082029Z 34008KT 02/00 A3027 RMK A01 T00180004  RH  090%=      5-min Rain = 0
KCH1 082030Z 34007KT 02/01 A3027 RMK A01 T00180005  RH  091%=      5-min Rain = 0
KCH1 082031Z 34011KT 02/01 A3027 RMK A01 T00190006  RH  092%=      5-min Rain = 0
KCH1 082032Z 34007G13KT 02/01 A3027 RMK A01 T00190005  RH  091%=      5-min Rain = 0
KCH1 082033Z 34007KT 02/01 A3027 RMK A01 T00180005  RH  091%=      5-min Rain = 0
KCH1 082034Z 34009G14KT 02/01 A3027 RMK A01 T00190007  RH  092%=      5-min Rain = 0
KCH1 082035Z 35010G15KT 02/01 A3027 RMK A01 T00190006  RH  091%=      5-min Rain = 0
KCH1 082036Z 35011KT 02/01 A3027 RMK A01 T00190006  RH  091%=      5-min Rain = 0
KCH1 082037Z 35012G17KT 02/01 A3027 RMK A01 T00190005  RH  090%=      5-min Rain = 0
KCH1 082038Z 34011KT 02/00 A3027 RMK A01 T00190004  RH  090%=      5-min Rain = 0
KCH1 082039Z 34010KT 02/01 A3027 RMK A01 T00190005  RH  090%=      5-min Rain = 0
KCH1 082040Z 35011KT 02/00 A3027 RMK A01 T00190004  RH  090%=      5-min Rain = 0
KCH1 082041Z 35013KT 02/00 A3027 RMK A01 T00180003  RH  090%=      5-min Rain = 0
KCH1 082042Z 34012KT 02/00 A3027 RMK A01 T00180003  RH  090%=      5-min Rain = 0
KCH1 082043Z 34011KT 02/00 A3027 RMK A01 T00180002  RH  090%=      5-min Rain = 0
KCH1 082044Z 35008KT 02/00 A3027 RMK A01 T00180003  RH  090%=      5-min Rain = 0
KCH1 082045Z 34008KT 02/01 A3027 RMK A01 T00180005  RH  091%=      5-min Rain = 0
KCH1 082046Z 34009KT 02/01 A3027 RMK A01 T00190006  RH  091%=      5-min Rain = 0
KCH1 082047Z 34006KT 02/01 A3027 RMK A01 T00200006  RH  091%=      5-min Rain = 0
KCH1 082048Z 35006KT 02/01 A3026 RMK A01 T00200007  RH  091%=      5-min Rain = 0
KCH1 082049Z 35008KT 02/01 A3027 RMK A01 T00210008  RH  091%=      5-min Rain = 0
KCH1 082050Z 34010KT 02/01 A3026 RMK A01 T00220008  RH  090%=      5-min Rain = 0
KCH1 082051Z 34009KT 02/01 A3026 RMK A01 T00210006  RH  090%=      5-min Rain = 0
KCH1 082052Z 34011G16KT 02/01 A3026 RMK A01 T00210006  RH  089%=      5-min Rain = 0
KCH1 082053Z 35011KT 02/01 A3026 RMK A01 T00210005  RH  089%=      5-min Rain = 0
KCH1 082054Z 35009KT 02/00 A3026 RMK A01 T00200004  RH  089%=      5-min Rain = 0
KCH1 082055Z 35010KT 02/00 A3026 RMK A01 T00200004  RH  089%=      5-min Rain = 0
KCH1 082056Z 34010KT 02/00 A3026 RMK A01 T00200004  RH  089%=      5-min Rain = 0
KCH1 082057Z 35011KT 02/01 A3026 RMK A01 T00200005  RH  090%=      5-min Rain = 0
KCH1 082058Z 35012KT 02/01 A3026 RMK A01 T00200005  RH  090%=      5-min Rain = 0
KCH1 082059Z 35011KT 02/00 A3026 RMK A01 T00200004  RH  089%=      5-min Rain = 0
KCH1 082100Z 35011KT 02/00 A3026 RMK A01 T00200004  RH  089%=      5-min Rain = 0
KCH1 082101Z 36008KT 02/00 A3026 RMK A01 T00190004  RH  090%=      5-min Rain = 0
KCH1 082102Z 36009G14KT 02/01 A3026 RMK A01 T00200006  RH  090%=      5-min Rain = 0
KCH1 082103Z 33009G14KT 02/01 A3027 RMK A01 T00210006  RH  090%=      5-min Rain = 0
KCH1 082104Z 36007KT 02/01 A3027 RMK A01 T00210007  RH  090%=      5-min Rain = 0
KCH1 082105Z 00007KT 02/01 A3027 RMK A01 T00220007  RH  090%=      5-min Rain = 0
KCH1 082106Z 35008KT 02/01 A3026 RMK A01 T00220007  RH  090%=      5-min Rain = 0
KCH1 082107Z 35008KT 02/01 A3026 RMK A01 T00220007  RH  090%=      5-min Rain = 0
KCH1 082108Z 35013KT 02/01 A3026 RMK A01 T00220006  RH  089%=      5-min Rain = 0
KCH1 082109Z 35010KT 02/00 A3026 RMK A01 T00220004  RH  088%=      5-min Rain = 0
KCH1 082110Z 36010KT 02/00 A3026 RMK A01 T00220004  RH  088%=      5-min Rain = 0
KCH1 082111Z 01010KT 02/00 A3026 RMK A01 T00220004  RH  088%=      5-min Rain = 0
KCH1 082112Z 36009KT 02/00 A3026 RMK A01 T00220004  RH  087%=      5-min Rain = 0
KCH1 082113Z 00010KT 02/00 A3026 RMK A01 T00230004  RH  087%=      5-min Rain = 0
KCH1 082114Z 35010G15KT 02/00 A3026 RMK A01 T00220003  RH  087%=      5-min Rain = 0
KCH1 082115Z 35011KT 02/00 A3026 RMK A01 T00220003  RH  087%=      5-min Rain = 0
KCH1 082116Z 00009G14KT 02/00 A3026 RMK A01 T00220003  RH  087%=      5-min Rain = 0
KCH1 082117Z 35011KT 02/00 A3026 RMK A01 T00220004  RH  088%=      5-min Rain = 0
KCH1 082118Z 35008KT 02/00 A3026 RMK A01 T00220004  RH  088%=      5-min Rain = 0
KCH1 082119Z 34006KT 02/00 A3026 RMK A01 T00220004  RH  088%=      5-min Rain = 0
KCH1 082120Z 36004G9KT 02/01 A3026 RMK A01 T00230006  RH  088%=      5-min Rain = 0
KCH1 082121Z 36006KT 02/01 A3026 RMK A01 T00240006  RH  088%=      5-min Rain = 0
KCH1 082122Z 00008KT 03/01 A3026 RMK A01 T00250008  RH  089%=      5-min Rain = 0
KCH1 082123Z 34007KT 03/01 A3026 RMK A01 T00250006  RH  087%=      5-min Rain = 0
KCH1 082124Z 34005KT 02/01 A3026 RMK A01 T00240005  RH  087%=      5-min Rain = 0
KCH1 082125Z 35006KT 03/01 A3026 RMK A01 T00250008  RH  088%=      5-min Rain = 0
KCH1 082126Z 00008KT 03/01 A3026 RMK A01 T00250008  RH  088%=      5-min Rain = 0
KCH1 082127Z 35010KT 03/01 A3026 RMK A01 T00250006  RH  087%=      5-min Rain = 0
KCH1 082128Z 01010KT 02/00 A3026 RMK A01 T00240004  RH  086%=      5-min Rain = 0
KCH1 082129Z 36008KT 02/00 A3026 RMK A01 T00230003  RH  086%=      5-min Rain = 0
KCH1 082130Z 35008KT 02/00 A3026 RMK A01 T00230003  RH  087%=      5-min Rain = 0
KCH1 082131Z 01009KT 02/01 A3026 RMK A01 T00230005  RH  088%=      5-min Rain = 0
KCH1 082132Z 35009KT 02/00 A3026 RMK A01 T00240004  RH  087%=      5-min Rain = 0
KCH1 082133Z 33009KT 02/00 A3026 RMK A01 T00230003  RH  087%=      5-min Rain = 0
KCH1 082134Z 34008KT 02/00 A3026 RMK A01 T00230003  RH  087%=      5-min Rain = 0
KCH1 082135Z 34007KT 02/00 A3026 RMK A01 T00230003  RH  087%=      5-min Rain = 0
KCH1 082136Z 35008G13KT 02/00 A3026 RMK A01 T00230003  RH  087%=      5-min Rain = 0
KCH1 082137Z 35006KT 02/00 A3026 RMK A01 T00230004  RH  087%=      5-min Rain = 0
KCH1 082138Z 34005KT 02/01 A3026 RMK A01 T00240005  RH  088%=      5-min Rain = 0
KCH1 082139Z 00007KT 02/01 A3026 RMK A01 T00240006  RH  087%=      5-min Rain = 0
KCH1 082140Z 35009KT 02/00 A3026 RMK A01 T00240004  RH  086%=      5-min Rain = 0
KCH1 082141Z 35010KT 02/00 A3026 RMK A01 T00240002  RH  086%=      5-min Rain = 0
KCH1 082142Z 35011KT 02/00 A3026 RMK A01 T00230001  RH  086%=      5-min Rain = 0
KCH1 082143Z 36011KT 02/00 A3026 RMK A01 T002200-0  RH  085%=      5-min Rain = 0
KCH1 082144Z 35008KT 02/00 A3026 RMK A01 T00210000  RH  086%=      5-min Rain = 0
KCH1 082145Z 34006KT 02/00 A3026 RMK A01 T00220002  RH  087%=      5-min Rain = 0
KCH1 082146Z 35005KT 02/00 A3026 RMK A01 T00220004  RH  088%=      5-min Rain = 0
KCH1 082147Z 34006KT 02/01 A3026 RMK A01 T00230005  RH  088%=      5-min Rain = 0
KCH1 082148Z 34010KT 02/01 A3026 RMK A01 T00240005  RH  087%=      5-min Rain = 0
KCH1 082149Z 34007KT 02/00 A3026 RMK A01 T00240004  RH  086%=      5-min Rain = 0
KCH1 082150Z 34009KT 02/00 A3026 RMK A01 T00240003  RH  086%=      5-min Rain = 0
KCH1 082151Z 34010KT 02/00 A3025 RMK A01 T00230001  RH  085%=      5-min Rain = 0
KCH1 082152Z 35009KT 02/00 A3025 RMK A01 T00230001  RH  086%=      5-min Rain = 0
KCH1 082153Z 34007KT 02/00 A3026 RMK A01 T00230002  RH  086%=      5-min Rain = 0
KCH1 082154Z 34005G10KT 02/00 A3025 RMK A01 T00230003  RH  087%=      5-min Rain = 0
KCH1 082155Z 35007KT 02/01 A3025 RMK A01 T00240005  RH  087%=      5-min Rain = 0
KCH1 082156Z 35009KT 02/00 A3025 RMK A01 T00240004  RH  087%=      5-min Rain = 0
KCH1 082157Z 36006KT 02/00 A3025 RMK A01 T00240004  RH  087%=      5-min Rain = 0
KCH1 082158Z 35006KT 02/00 A3025 RMK A01 T00240004  RH  087%=      5-min Rain = 0
KCH1 082159Z 35009KT 02/00 A3025 RMK A01 T00240004  RH  087%=      5-min Rain = 0
KCH1 082200Z 34010KT 02/00 A3025 RMK A01 T00240003  RH  086%=      5-min Rain = 0
KCH1 082201Z 35011KT 02/00 A3025 RMK A01 T00230001  RH  085%=      5-min Rain = 0
KCH1 082202Z 00007G12KT 02/00 A3025 RMK A01 T00230001  RH  086%=      5-min Rain = 0
KCH1 082203Z 35010KT 02/00 A3025 RMK A01 T00230002  RH  086%=      5-min Rain = 0
KCH1 082204Z 35008KT 02/00 A3025 RMK A01 T00230002  RH  086%=      5-min Rain = 0
KCH1 082205Z 35010KT 02/00 A3025 RMK A01 T00230003  RH  087%=      5-min Rain = 0
KCH1 082206Z 35010KT 02/00 A3025 RMK A01 T00230002  RH  086%=      5-min Rain = 0
KCH1 082207Z 35009KT 02/00 A3025 RMK A01 T00230002  RH  086%=      5-min Rain = 0
KCH1 082208Z 35009KT 02/00 A3025 RMK A01 T00230003  RH  086%=      5-min Rain = 0
KCH1 082209Z 34007KT 02/00 A3025 RMK A01 T00230003  RH  087%=      5-min Rain = 0
KCH1 082210Z 34005KT 02/00 A3025 RMK A01 T00230002  RH  087%=      5-min Rain = 0
KCH1 082211Z 34009KT 02/00 A3025 RMK A01 T00230003  RH  087%=      5-min Rain = 0
KCH1 082212Z 33008KT 02/00 A3025 RMK A01 T00230002  RH  086%=      5-min Rain = 0
KCH1 082213Z 33008KT 02/00 A3025 RMK A01 T00230003  RH  086%=      5-min Rain = 0
KCH1 082214Z 34008KT 02/00 A3025 RMK A01 T00230003  RH  087%=      5-min Rain = 0
KCH1 082215Z 34004KT 02/00 A3025 RMK A01 T00230003  RH  087%=      5-min Rain = 0
KCH1 082216Z 01003KT 02/01 A3025 RMK A01 T00240005  RH  087%=      5-min Rain = 0
KCH1 082217Z 01006KT 03/01 A3025 RMK A01 T00250007  RH  088%=      5-min Rain = 0
KCH1 082218Z 01008KT 03/01 A3025 RMK A01 T00260006  RH  087%=      5-min Rain = 0
KCH1 082219Z 00007KT 03/00 A3025 RMK A01 T00250004  RH  086%=      5-min Rain = 0
KCH1 082220Z 36007KT 03/00 A3025 RMK A01 T00250004  RH  086%=      5-min Rain = 0
KCH1 082221Z 00006KT 03/00 A3025 RMK A01 T00250003  RH  086%=      5-min Rain = 0
KCH1 082222Z 36010KT 03/00 A3025 RMK A01 T00250004  RH  086%=      5-min Rain = 0
KCH1 082223Z 00012KT 03/00 A3025 RMK A01 T00260002  RH  085%=      5-min Rain = 0
KCH1 082224Z 35010KT 03/00 A3025 RMK A01 T00250001  RH  084%=      5-min Rain = 0
KCH1 082225Z 35008KT 02/00 A3025 RMK A01 T00240002  RH  085%=      5-min Rain = 0
KCH1 082226Z 35007KT 03/00 A3025 RMK A01 T00250003  RH  086%=      5-min Rain = 0
KCH1 082227Z 36009KT 03/00 A3026 RMK A01 T00250003  RH  086%=      5-min Rain = 0
KCH1 082228Z 00009KT 02/00 A3026 RMK A01 T00240002  RH  085%=      5-min Rain = 0
KCH1 082229Z 35009KT 02/00 A3026 RMK A01 T00230000  RH  085%=      5-min Rain = 0
KCH1 082230Z 35008KT 02/00 A3026 RMK A01 T00230002  RH  086%=      5-min Rain = 0
KCH1 082231Z 35008KT 02/00 A3026 RMK A01 T00230002  RH  086%=      5-min Rain = 0
KCH1 082232Z 36007KT 02/00 A3026 RMK A01 T00230003  RH  087%=      5-min Rain = 0
KCH1 082233Z 36009KT 02/00 A3026 RMK A01 T00230003  RH  087%=      5-min Rain = 0
KCH1 082234Z 36009KT 02/00 A3026 RMK A01 T00230003  RH  087%=      5-min Rain = 0
KCH1 082235Z 36009KT 02/00 A3026 RMK A01 T00220002  RH  087%=      5-min Rain = 0
KCH1 082236Z 36008KT 02/00 A3026 RMK A01 T00220002  RH  087%=      5-min Rain = 0
KCH1 082237Z 36010KT 02/00 A3026 RMK A01 T00220002  RH  087%=      5-min Rain = 0
KCH1 082238Z 36012KT 02/00 A3026 RMK A01 T00210002  RH  087%=      5-min Rain = 0
KCH1 082239Z 34008KT 02/00 A3026 RMK A01 T00210001  RH  087%=      5-min Rain = 0
KCH1 082240Z 33007KT 02/00 A3026 RMK A01 T00210002  RH  088%=      5-min Rain = 0
KCH1 082241Z 33011KT 02/00 A3026 RMK A01 T00210003  RH  088%=      5-min Rain = 0
KCH1 082242Z 33011KT 02/00 A3026 RMK A01 T00210002  RH  087%=      5-min Rain = 0
KCH1 082243Z 34011KT 02/00 A3026 RMK A01 T00210001  RH  087%=      5-min Rain = 0
KCH1 082244Z 34010KT 02/00 A3026 RMK A01 T00200000  RH  087%=      5-min Rain = 0
KCH1 082245Z 35011KT 02/00 A3026 RMK A01 T002000-0  RH  087%=      5-min Rain = 0
KCH1 082246Z 34010KT 02/00 A3026 RMK A01 T00190000  RH  087%=      5-min Rain = 0
KCH1 082247Z 35009KT 02/00 A3026 RMK A01 T00190001  RH  087%=      5-min Rain = 0
KCH1 082248Z 35009KT 02/00 A3026 RMK A01 T00200001  RH  088%=      5-min Rain = 0
KCH1 082249Z 35009KT 02/00 A3026 RMK A01 T00190001  RH  088%=      5-min Rain = 0
KCH1 082250Z 35009KT 02/00 A3026 RMK A01 T00190002  RH  088%=      5-min Rain = 0
KCH1 082251Z 34009KT 02/00 A3026 RMK A01 T00200002  RH  088%=      5-min Rain = 0
KCH1 082252Z 34011KT 02/00 A3026 RMK A01 T00200002  RH  088%=      5-min Rain = 0
KCH1 082253Z 35010KT 02/00 A3026 RMK A01 T00190001  RH  088%=      5-min Rain = 0
KCH1 082254Z 36007KT 02/00 A3026 RMK A01 T00190001  RH  088%=      5-min Rain = 0
KCH1 082255Z 35006KT 02/00 A3026 RMK A01 T00200002  RH  088%=      5-min Rain = 0
KCH1 082256Z 36007KT 02/00 A3026 RMK A01 T00200003  RH  089%=      5-min Rain = 0
KCH1 082257Z 36007KT 02/00 A3026 RMK A01 T00200003  RH  088%=      5-min Rain = 0
KCH1 082258Z 36009KT 02/00 A3026 RMK A01 T00200002  RH  088%=      5-min Rain = 0
KCH1 082259Z 01008KT 02/00 A3026 RMK A01 T00190002  RH  088%=      5-min Rain = 0
KCH1 082300Z 35008KT 02/00 A3026 RMK A01 T00190002  RH  089%=      5-min Rain = 0
KCH1 082301Z 35007KT 02/00 A3026 RMK A01 T00190002  RH  089%=      5-min Rain = 0
KCH1 082302Z 35007KT 02/00 A3027 RMK A01 T00190003  RH  089%=      5-min Rain = 0
KCH1 082303Z 34007KT 02/00 A3027 RMK A01 T00190003  RH  089%=      5-min Rain = 0
KCH1 082304Z 34006KT 02/00 A3027 RMK A01 T00190003  RH  089%=      5-min Rain = 0
KCH1 082305Z 33007KT 02/00 A3027 RMK A01 T00190003  RH  089%=      5-min Rain = 0
KCH1 082306Z 34009KT 02/00 A3027 RMK A01 T00190003  RH  089%=      5-min Rain = 0
KCH1 082307Z 33009KT 02/00 A3027 RMK A01 T00190002  RH  089%=      5-min Rain = 0
KCH1 082308Z 34010KT 02/00 A3027 RMK A01 T00190002  RH  088%=      5-min Rain = 0
KCH1 082309Z 34009KT 02/00 A3027 RMK A01 T00180001  RH  089%=      5-min Rain = 0
KCH1 082310Z 33010KT 02/00 A3027 RMK A01 T00180001  RH  088%=      5-min Rain = 0
KCH1 082311Z 33009KT 02/00 A3027 RMK A01 T00180000  RH  088%=      5-min Rain = 0
KCH1 082312Z 33009KT 02/00 A3027 RMK A01 T00170000  RH  089%=      5-min Rain = 0
KCH1 082313Z 33009KT 02/00 A3027 RMK A01 T00170001  RH  089%=      5-min Rain = 0
KCH1 082314Z 33009KT 02/00 A3027 RMK A01 T00170001  RH  089%=      5-min Rain = 0
KCH1 082315Z 33009KT 02/00 A3027 RMK A01 T00170000  RH  089%=      5-min Rain = 0
KCH1 082316Z 34010KT 02/00 A3027 RMK A01 T00170000  RH  089%=      5-min Rain = 0
KCH1 082317Z 33009KT 02/00 A3027 RMK A01 T00170000  RH  089%=      5-min Rain = 0
KCH1 082318Z 33008KT 02/00 A3027 RMK A01 T001700-0  RH  089%=      5-min Rain = 0
KCH1 082319Z 33008KT 02/00 A3027 RMK A01 T00170000  RH  089%=      5-min Rain = 0
KCH1 082320Z 33008KT 02/00 A3027 RMK A01 T00170001  RH  089%=      5-min Rain = 0
KCH1 082321Z 33006KT 02/00 A3027 RMK A01 T00170001  RH  089%=      5-min Rain = 0
KCH1 082322Z 33008KT 02/00 A3027 RMK A01 T00170001  RH  089%=      5-min Rain = 0
KCH1 082323Z 34008KT 02/00 A3027 RMK A01 T00170001  RH  089%=      5-min Rain = 0
KCH1 082324Z 33008KT 02/00 A3027 RMK A01 T00170001  RH  089%=      5-min Rain = 0
KCH1 082325Z 33006KT 02/00 A3027 RMK A01 T00170001  RH  089%=      5-min Rain = 0
KCH1 082326Z 33009KT 02/00 A3027 RMK A01 T00170001  RH  089%=      5-min Rain = 0
KCH1 082327Z 33007KT 02/00 A3027 RMK A01 T00170001  RH  089%=      5-min Rain = 0
KCH1 082328Z 34008KT 02/00 A3027 RMK A01 T00170001  RH  089%=      5-min Rain = 0
KCH1 082329Z 33010KT 02/00 A3027 RMK A01 T00170001  RH  089%=      5-min Rain = 0
KCH1 082330Z 33009KT 02/00 A3027 RMK A01 T00170001  RH  089%=      5-min Rain = 0
KCH1 082331Z 33008KT 02/00 A3027 RMK A01 T00170000  RH  089%=      5-min Rain = 0
KCH1 082332Z 34006KT 02/00 A3027 RMK A01 T001700-0  RH  089%=      5-min Rain = 0
KCH1 082333Z 33006KT 02/00 A3027 RMK A01 T00170000  RH  089%=      5-min Rain = 0
KCH1 082334Z 33007KT 02/00 A3028 RMK A01 T00170001  RH  089%=      5-min Rain = 0
KCH1 082335Z 33008KT 02/00 A3028 RMK A01 T00170001  RH  089%=      5-min Rain = 0
KCH1 082336Z 33007KT 02/00 A3028 RMK A01 T00170001  RH  089%=      5-min Rain = 0
KCH1 082337Z 33007KT 02/00 A3028 RMK A01 T00170001  RH  089%=      5-min Rain = 0
KCH1 082338Z 34007KT 02/00 A3028 RMK A01 T00170001  RH  089%=      5-min Rain = 0
KCH1 082339Z 33007KT 02/00 A3028 RMK A01 T00170001  RH  089%=      5-min Rain = 0
KCH1 082340Z 33008KT 02/00 A3028 RMK A01 T00170001  RH  089%=      5-min Rain = 0
KCH1 082341Z 32008KT 02/00 A3028 RMK A01 T00170001  RH  089%=      5-min Rain = 0
KCH1 082342Z 33008KT 02/00 A3028 RMK A01 T00170001  RH  089%=      5-min Rain = 0
KCH1 082343Z 34009KT 02/00 A3028 RMK A01 T00170001  RH  089%=      5-min Rain = 0
KCH1 082344Z 34011KT 02/00 A3028 RMK A01 T00170001  RH  089%=      5-min Rain = 0
KCH1 082345Z 33008KT 02/00 A3028 RMK A01 T001700-0  RH  089%=      5-min Rain = 0
KCH1 082346Z 32009KT 02/00 A3028 RMK A01 T00160000  RH  089%=      5-min Rain = 0
KCH1 082347Z 33008KT 02/00 A3028 RMK A01 T001600-0  RH  089%=      5-min Rain = 0
KCH1 082348Z 34008KT 02/00 A3028 RMK A01 T00160000  RH  089%=      5-min Rain = 0
KCH1 082349Z 33008KT 02/00 A3028 RMK A01 T00160001  RH  089%=      5-min Rain = 0
KCH1 082350Z 33008G14KT 02/00 A3028 RMK A01 T00160001  RH  089%=      5-min Rain = 0
KCH1 082351Z 33009KT 02/00 A3028 RMK A01 T00160000  RH  089%=      5-min Rain = 0
KCH1 082352Z 33011KT 02/00 A3028 RMK A01 T001600-0  RH  089%=      5-min Rain = 0
KCH1 082353Z 33010KT 02/M00 A3028 RMK A01 T00161001  RH  089%=      5-min Rain = 0
KCH1 082354Z 33009KT 02/00 A3028 RMK A01 T001600-0  RH  089%=      5-min Rain = 0
KCH1 082355Z 34009KT 02/00 A3028 RMK A01 T001600-0  RH  089%=      5-min Rain = 0
KCH1 082356Z 34009KT 02/00 A3028 RMK A01 T00160000  RH  089%=      5-min Rain = 0
KCH1 082357Z 34009KT 02/00 A3028 RMK A01 T00160000  RH  090%=      5-min Rain = 0
KCH1 082358Z 34008KT 02/00 A3028 RMK A01 T00160000  RH  089%=      5-min Rain = 0
KCH1 082359Z 34008KT 02/00 A3029 RMK A01 T00160000  RH  090%=      5-min Rain = 0
KCH1 090000Z 35006KT 02/00 A3029 RMK A01 T00160001  RH  090%=      5-min Rain = 0
KCH1 090001Z 34006KT 02/00 A3029 RMK A01 T00160001  RH  090%=      5-min Rain = 0
KCH1 090002Z 34007KT 02/00 A3029 RMK A01 T00160001  RH  090%=      5-min Rain = 0
KCH1 090003Z 33005KT 02/00 A3029 RMK A01 T00160001  RH  090%=      5-min Rain = 0
KCH1 090004Z 34007KT 02/00 A3029 RMK A01 T00160001  RH  090%=      5-min Rain = 0
KCH1 090005Z 33007KT 02/00 A3029 RMK A01 T00160002  RH  090%=      5-min Rain = 0
KCH1 090006Z 33008KT 02/00 A3029 RMK A01 T00160002  RH  090%=      5-min Rain = 0
KCH1 090007Z 33006KT 02/00 A3029 RMK A01 T00160001  RH  090%=      5-min Rain = 0
KCH1 090008Z 33005KT 02/00 A3029 RMK A01 T00160001  RH  090%=      5-min Rain = 0
KCH1 090009Z 33007KT 02/00 A3029 RMK A01 T00160001  RH  090%=      5-min Rain = 0
KCH1 090010Z 33007KT 02/00 A3029 RMK A01 T00160001  RH  090%=      5-min Rain = 0
KCH1 090011Z 33008KT 02/00 A3028 RMK A01 T00160001  RH  090%=      5-min Rain = 0
KCH1 090012Z 33006KT 02/00 A3028 RMK A01 T00160000  RH  089%=      5-min Rain = 0
KCH1 090013Z 33004KT 02/00 A3028 RMK A01 T00160000  RH  089%=      5-min Rain = 0
KCH1 090014Z 33006KT 02/00 A3028 RMK A01 T00150000  RH  090%=      5-min Rain = 0
KCH1 090015Z 32006KT 02/00 A3028 RMK A01 T00150000  RH  090%=      5-min Rain = 0
KCH1 090016Z 34006KT 02/00 A3028 RMK A01 T00150000  RH  090%=      5-min Rain = 0
KCH1 090017Z 34005KT 02/00 A3028 RMK A01 T00150000  RH  090%=      5-min Rain = 0
KCH1 090018Z 33007KT 02/00 A3028 RMK A01 T00150000  RH  090%=      5-min Rain = 0
KCH1 090019Z 33006KT 01/00 A3029 RMK A01 T001400-0  RH  090%=      5-min Rain = 0
KCH1 090020Z 32008KT 01/M00 A3028 RMK A01 T00141001  RH  090%=      5-min Rain = 0
KCH1 090021Z 33009KT 01/M00 A3028 RMK A01 T00131002  RH  090%=      5-min Rain = 0
KCH1 090022Z 33008KT 01/M00 A3028 RMK A01 T00131003  RH  089%=      5-min Rain = 0
KCH1 090023Z 33007KT 01/M00 A3028 RMK A01 T00131004  RH  089%=      5-min Rain = 0
KCH1 090024Z 33006KT 01/M00 A3028 RMK A01 T00131004  RH  089%=      5-min Rain = 0
KCH1 090025Z 33006KT 01/M00 A3029 RMK A01 T00121004  RH  089%=      5-min Rain = 0
KCH1 090026Z 33007KT 01/M00 A3029 RMK A01 T00121004  RH  089%=      5-min Rain = 0
KCH1 090027Z 34006KT 01/M00 A3029 RMK A01 T00121004  RH  089%=      5-min Rain = 0
KCH1 090028Z 34007KT 01/M00 A3029 RMK A01 T00121004  RH  089%=      5-min Rain = 0
KCH1 090029Z 34008KT 01/M01 A3029 RMK A01 T00111005  RH  089%=      5-min Rain = 0
KCH1 090030Z 33004KT 01/M01 A3029 RMK A01 T00111005  RH  089%=      5-min Rain = 0
KCH1 090031Z 33007KT 01/M00 A3029 RMK A01 T00111004  RH  089%=      5-min Rain = 0
KCH1 090032Z 33006KT 01/M00 A3029 RMK A01 T00111004  RH  090%=      5-min Rain = 0
KCH1 090033Z 34007KT 01/M00 A3029 RMK A01 T00111004  RH  090%=      5-min Rain = 0
KCH1 090034Z 35005KT 01/M00 A3029 RMK A01 T00111004  RH  090%=      5-min Rain = 0
KCH1 090035Z 34005KT 01/M00 A3029 RMK A01 T00111004  RH  090%=      5-min Rain = 0
KCH1 090036Z 34006KT 01/M00 A3029 RMK A01 T00111004  RH  090%=      5-min Rain = 0
KCH1 090037Z 34004KT 01/M00 A3029 RMK A01 T00111004  RH  090%=      5-min Rain = 0
KCH1 090038Z 35005KT 01/M00 A3029 RMK A01 T00111004  RH  090%=      5-min Rain = 0
KCH1 090039Z 35004KT 01/M00 A3029 RMK A01 T00101004  RH  090%=      5-min Rain = 0
KCH1 090040Z 35005KT 01/M00 A3029 RMK A01 T00111003  RH  091%=      5-min Rain = 0
KCH1 090041Z 34006KT 01/M00 A3029 RMK A01 T00111003  RH  091%=      5-min Rain = 0
KCH1 090042Z 34005KT 01/M00 A3029 RMK A01 T00101003  RH  091%=      5-min Rain = 0
KCH1 090043Z 34006KT 01/M00 A3029 RMK A01 T00101003  RH  091%=      5-min Rain = 0
KCH1 090044Z 35005KT 01/M00 A3029 RMK A01 T00101003  RH  091%=      5-min Rain = 0
KCH1 090045Z 35005KT 01/M00 A3029 RMK A01 T00101003  RH  091%=      5-min Rain = 0
KCH1 090046Z 35004KT 01/M00 A3029 RMK A01 T00101003  RH  091%=      5-min Rain = 0
KCH1 090047Z 34005KT 01/M00 A3029 RMK A01 T00101003  RH  091%=      5-min Rain = 0
KCH1 090048Z 34005KT 01/M00 A3029 RMK A01 T00101003  RH  091%=      5-min Rain = 0
KCH1 090049Z 34004KT 01/M00 A3029 RMK A01 T00091003  RH  091%=      5-min Rain = 0
KCH1 090050Z 33006KT 01/M00 A3029 RMK A01 T00091003  RH  091%=      5-min Rain = 0
KCH1 090051Z 33006KT 01/M00 A3029 RMK A01 T00091003  RH  092%=      5-min Rain = 0
KCH1 090052Z 33006KT 01/M00 A3029 RMK A01 T00091003  RH  092%=      5-min Rain = 0
KCH1 090053Z 33006KT 01/M00 A3029 RMK A01 T00091003  RH  092%=      5-min Rain = 0
KCH1 090054Z 33005KT 01/M00 A3029 RMK A01 T00091003  RH  092%=      5-min Rain = 0
KCH1 090055Z 34005KT 01/M00 A3029 RMK A01 T00091003  RH  092%=      5-min Rain = 0
KCH1 090056Z 33005KT 01/M00 A3029 RMK A01 T00091003  RH  092%=      5-min Rain = 0
KCH1 090057Z 33004KT 01/M00 A3029 RMK A01 T00091002  RH  092%=      5-min Rain = 0
KCH1 090058Z 33004KT 01/M00 A3029 RMK A01 T00091002  RH  092%=      5-min Rain = 0
KCH1 090059Z 33005KT 01/M00 A3029 RMK A01 T00081002  RH  093%=      5-min Rain = 0
KCH1 090100Z 33005KT 01/M00 A3029 RMK A01 T00081002  RH  093%=      5-min Rain = 0
KCH1 090101Z 33005KT 01/M00 A3029 RMK A01 T00081002  RH  093%=      5-min Rain = 0
KCH1 090102Z 32005KT 01/M00 A3029 RMK A01 T00081002  RH  093%=      5-min Rain = 0
KCH1 090103Z 34004KT 01/M00 A3029 RMK A01 T00081002  RH  093%=      5-min Rain = 0
KCH1 090104Z 33005KT 01/M00 A3029 RMK A01 T00081002  RH  093%=      5-min Rain = 0
KCH1 090105Z 32007KT 01/M00 A3029 RMK A01 T00081002  RH  093%=      5-min Rain = 0
KCH1 090106Z 34004KT 01/M00 A3029 RMK A01 T00091002  RH  093%=      5-min Rain = 0
KCH1 090107Z 33004KT 01/M00 A3029 RMK A01 T00091002  RH  092%=      5-min Rain = 0
KCH1 090108Z 33004KT 01/M00 A3029 RMK A01 T00101002  RH  092%=      5-min Rain = 0
KCH1 090109Z 34004KT 01/M00 A3029 RMK A01 T00091002  RH  092%=      5-min Rain = 0
KCH1 090110Z 34004KT 01/M00 A3029 RMK A01 T00091002  RH  092%=      5-min Rain = 0
KCH1 090111Z 34004KT 01/M00 A3029 RMK A01 T00091001  RH  093%=      5-min Rain = 0
KCH1 090112Z 33006KT 01/M00 A3029 RMK A01 T00091001  RH  093%=      5-min Rain = 0
KCH1 090113Z 32007KT 01/M00 A3029 RMK A01 T00091001  RH  093%=      5-min Rain = 0
KCH1 090114Z 32005KT 01/M00 A3029 RMK A01 T00101001  RH  093%=      5-min Rain = 0
KCH1 090115Z 34004KT 01/M00 A3029 RMK A01 T00101001  RH  092%=      5-min Rain = 0
KCH1 090116Z 33003KT 01/M00 A3029 RMK A01 T00101001  RH  092%=      5-min Rain = 0
KCH1 090117Z 34006KT 01/M00 A3029 RMK A01 T00101001  RH  092%=      5-min Rain = 0
KCH1 090118Z 33007KT 01/M00 A3029 RMK A01 T00091002  RH  092%=      5-min Rain = 0
KCH1 090119Z 33007KT 01/M00 A3029 RMK A01 T00101002  RH  092%=      5-min Rain = 0
KCH1 090120Z 33006KT 01/M00 A3029 RMK A01 T00091003  RH  092%=      5-min Rain = 0
KCH1 090121Z 33006KT 01/M00 A3029 RMK A01 T00091003  RH  091%=      5-min Rain = 0
KCH1 090122Z 34006KT 01/M00 A3029 RMK A01 T00091004  RH  091%=      5-min Rain = 0
KCH1 090123Z 33005KT 01/M00 A3029 RMK A01 T00081004  RH  091%=      5-min Rain = 0
KCH1 090124Z 34006KT 01/M00 A3029 RMK A01 T00081004  RH  091%=      5-min Rain = 0
KCH1 090125Z 33005KT 01/M00 A3029 RMK A01 T00081004  RH  091%=      5-min Rain = 0
KCH1 090126Z 34004KT 01/M01 A3029 RMK A01 T00081005  RH  091%=      5-min Rain = 0
KCH1 090127Z 33005KT 01/M01 A3029 RMK A01 T00081005  RH  091%=      5-min Rain = 0
KCH1 090128Z 33005KT 01/M01 A3029 RMK A01 T00071005  RH  092%=      5-min Rain = 0
KCH1 090129Z 33005KT 01/M01 A3029 RMK A01 T00071005  RH  092%=      5-min Rain = 0
KCH1 090130Z 33006KT 01/M01 A303 RMK A01 T00071005  RH  092%=      5-min Rain = 0
KCH1 090131Z 33006KT 01/M01 A303 RMK A01 T00071005  RH  092%=      5-min Rain = 0
KCH1 090132Z 33007KT 01/M00 A303 RMK A01 T00071004  RH  092%=      5-min Rain = 0
KCH1 090133Z 33005KT 01/M01 A303 RMK A01 T00071005  RH  092%=      5-min Rain = 0
KCH1 090134Z 34005KT 01/M01 A303 RMK A01 T00071005  RH  092%=      5-min Rain = 0
KCH1 090135Z 34005KT 01/M01 A303 RMK A01 T00071005  RH  092%=      5-min Rain = 0
KCH1 090136Z 33005KT 01/M01 A303 RMK A01 T00061005  RH  092%=      5-min Rain = 0
KCH1 090137Z 33005KT 01/M01 A303 RMK A01 T00061005  RH  092%=      5-min Rain = 0
KCH1 090138Z 33004KT 01/M01 A303 RMK A01 T00061005  RH  093%=      5-min Rain = 0
KCH1 090139Z 33004KT 01/M01 A303 RMK A01 T00051005  RH  093%=      5-min Rain = 0
KCH1 090140Z 34004KT 01/M01 A303 RMK A01 T00051005  RH  093%=      5-min Rain = 0
KCH1 090141Z 33005KT 01/M01 A303 RMK A01 T00051005  RH  093%=      5-min Rain = 0
KCH1 090142Z 34006KT 01/M01 A303 RMK A01 T00051005  RH  093%=      5-min Rain = 0
KCH1 090143Z 34005KT 01/M00 A303 RMK A01 T00051004  RH  094%=      5-min Rain = 0
KCH1 090144Z 33005KT 01/M00 A303 RMK A01 T00051004  RH  094%=      5-min Rain = 0
KCH1 090145Z 33006KT 01/M00 A303 RMK A01 T00051004  RH  094%=      5-min Rain = 0
KCH1 090146Z 34004KT 01/M00 A303 RMK A01 T00051004  RH  094%=      5-min Rain = 0
KCH1 090147Z 33005KT 01/M00 A303 RMK A01 T00051004  RH  094%=      5-min Rain = 0
KCH1 090148Z 34004KT 01/M00 A303 RMK A01 T00051004  RH  094%=      5-min Rain = 0
KCH1 090149Z 34005KT 01/M00 A303 RMK A01 T00051004  RH  094%=      5-min Rain = 0
KCH1 090150Z 33004KT 01/M00 A303 RMK A01 T00051004  RH  094%=      5-min Rain = 0
KCH1 090151Z 34004KT 01/M01 A303 RMK A01 T00051005  RH  094%=      5-min Rain = 0
KCH1 090152Z 33004KT 00/M01 A303 RMK A01 T00041005  RH  094%=      5-min Rain = 0
KCH1 090153Z 33005KT 00/M01 A303 RMK A01 T00041005  RH  094%=      5-min Rain = 0
KCH1 090154Z 33004KT 00/M01 A303 RMK A01 T00041005  RH  094%=      5-min Rain = 0
KCH1 090155Z 34005KT 00/M01 A303 RMK A01 T00041005  RH  094%=      5-min Rain = 0
KCH1 090156Z 33005KT 00/M01 A303 RMK A01 T00041005  RH  094%=      5-min Rain = 0
KCH1 090157Z 34005KT 00/M01 A303 RMK A01 T00041005  RH  094%=      5-min Rain = 0
KCH1 090158Z 33005KT 00/M01 A303 RMK A01 T00041005  RH  094%=      5-min Rain = 0
KCH1 090159Z 33004KT 00/M01 A303 RMK A01 T00041005  RH  094%=      5-min Rain = 0
KCH1 090200Z 34005KT 00/M01 A303 RMK A01 T00031005  RH  094%=      5-min Rain = 0
KCH1 090201Z 34005KT 00/M01 A303 RMK A01 T00031006  RH  094%=      5-min Rain = 0
KCH1 090202Z 34004KT 00/M01 A3031 RMK A01 T00031006  RH  094%=      5-min Rain = 0
KCH1 090203Z 34004KT 00/M01 A3031 RMK A01 T00031006  RH  094%=      5-min Rain = 0
KCH1 090204Z 34004KT 00/M01 A3031 RMK A01 T00021006  RH  094%=      5-min Rain = 0
KCH1 090205Z 34004KT 00/M01 A3031 RMK A01 T00021006  RH  094%=      5-min Rain = 0
KCH1 090206Z 34005KT 00/M01 A3031 RMK A01 T00021006  RH  094%=      5-min Rain = 0
KCH1 090207Z 34004KT 00/M01 A3031 RMK A01 T00021006  RH  094%=      5-min Rain = 0
KCH1 090208Z 33005KT 00/M01 A3031 RMK A01 T00021006  RH  094%=      5-min Rain = 0
KCH1 090209Z 34004KT 00/M01 A3031 RMK A01 T00021006  RH  094%=      5-min Rain = 0
KCH1 090210Z 34004KT 00/M01 A3031 RMK A01 T00021006  RH  094%=      5-min Rain = 0
KCH1 090211Z 34004KT 00/M01 A3031 RMK A01 T00021006  RH  095%=      5-min Rain = 0
KCH1 090212Z 33004KT 00/M01 A3031 RMK A01 T00011006  RH  095%=      5-min Rain = 0
KCH1 090213Z 34003KT 00/M01 A3031 RMK A01 T00011007  RH  095%=      5-min Rain = 0
KCH1 090214Z 33004KT 00/M01 A3031 RMK A01 T00011007  RH  095%=      5-min Rain = 0
KCH1 090215Z 34003KT 00/M01 A3031 RMK A01 T00011007  RH  095%=      5-min Rain = 0
KCH1 090216Z 34003KT 00/M01 A3031 RMK A01 T00011007  RH  095%=      5-min Rain = 0
KCH1 090217Z 34003KT 00/M01 A3031 RMK A01 T00011007  RH  095%=      5-min Rain = 0
KCH1 090218Z 34003KT 00/M01 A3031 RMK A01 T00011007  RH  095%=      5-min Rain = 0
KCH1 090219Z 34004KT 00/01 A3031 RMK A01 T000000-7  RH  095%=      5-min Rain = 0
KCH1 090220Z 34004KT 00/01 A3031 RMK A01 T00-000-7  RH  095%=      5-min Rain = 0
KCH1 090221Z 34004KT 00/01 A3031 RMK A01 T00-000-7  RH  095%=      5-min Rain = 0
KCH1 090222Z 34004KT 00/01 A3031 RMK A01 T00-000-7  RH  095%=      5-min Rain = 0
KCH1 090223Z 34004KT 00/01 A3031 RMK A01 T00-000-7  RH  095%=      5-min Rain = 0
KCH1 090224Z 34004KT 00/01 A3031 RMK A01 T000000-6  RH  095%=      5-min Rain = 0
KCH1 090225Z 34004KT 00/01 A3031 RMK A01 T00-000-7  RH  096%=      5-min Rain = 0
KCH1 090226Z 34004KT 00/01 A3031 RMK A01 T00-000-7  RH  096%=      5-min Rain = 0
KCH1 090227Z 34004KT 00/01 A3031 RMK A01 T00-000-7  RH  095%=      5-min Rain = 0
KCH1 090228Z 34003KT 00/01 A3031 RMK A01 T00-000-7  RH  095%=      5-min Rain = 0
KCH1 090229Z 34003KT M00/M01 A3031 RMK A01 T10011007  RH  095%=      5-min Rain = 0
KCH1 090230Z 34003KT M00/M01 A3031 RMK A01 T10011007  RH  095%=      5-min Rain = 0
KCH1 090231Z 34003KT M00/M01 A3031 RMK A01 T10011008  RH  095%=      5-min Rain = 0
KCH1 090232Z 34002KT M00/M01 A3031 RMK A01 T10011007  RH  096%=      5-min Rain = 0
KCH1 090233Z 35003KT M00/M01 A3031 RMK A01 T10011007  RH  096%=      5-min Rain = 0
KCH1 090234Z 35003KT M00/M01 A3031 RMK A01 T10011007  RH  096%=      5-min Rain = 0
KCH1 090235Z 36003KT M00/M01 A3031 RMK A01 T10011007  RH  096%=      5-min Rain = 0
KCH1 090236Z 35003KT M00/M01 A3031 RMK A01 T10011007  RH  096%=      5-min Rain = 0
KCH1 090237Z 01002KT M00/M01 A3031 RMK A01 T10011008  RH  096%=      5-min Rain = 0
KCH1 090238Z 36002KT M00/M01 A3031 RMK A01 T10021008  RH  096%=      5-min Rain = 0
KCH1 090239Z 36002KT M00/M01 A3031 RMK A01 T10021007  RH  096%=      5-min Rain = 0
KCH1 090240Z 36002KT M00/M01 A3031 RMK A01 T10021008  RH  096%=      5-min Rain = 0
KCH1 090241Z 35002KT M00/M01 A3031 RMK A01 T10021008  RH  096%=      5-min Rain = 0
KCH1 090242Z 35002KT M00/M01 A3031 RMK A01 T10031008  RH  096%=      5-min Rain = 0
KCH1 090243Z 34003KT M00/M01 A3031 RMK A01 T10031008  RH  096%=      5-min Rain = 0
KCH1 090244Z 35002KT M00/M01 A3031 RMK A01 T10031008  RH  096%=      5-min Rain = 0
KCH1 090245Z 34002KT M00/M01 A3031 RMK A01 T10021008  RH  096%=      5-min Rain = 0
KCH1 090246Z 34003KT M00/M01 A3031 RMK A01 T10031008  RH  096%=      5-min Rain = 0
KCH1 090247Z 35003KT M00/M01 A3031 RMK A01 T10021008  RH  096%=      5-min Rain = 0
KCH1 090248Z 34003KT M00/M01 A3031 RMK A01 T10031008  RH  096%=      5-min Rain = 0
KCH1 090249Z 34003KT M00/M01 A3031 RMK A01 T10031008  RH  096%=      5-min Rain = 0
KCH1 090250Z 34004KT M00/M01 A3031 RMK A01 T10031008  RH  096%=      5-min Rain = 0
KCH1 090251Z 34004KT M00/M01 A3031 RMK A01 T10031008  RH  096%=      5-min Rain = 0
KCH1 090252Z 35003KT M00/M01 A3031 RMK A01 T10031008  RH  096%=      5-min Rain = 0
KCH1 090253Z 35004KT M00/M01 A3031 RMK A01 T10031009  RH  096%=      5-min Rain = 0
KCH1 090254Z 34004KT M00/M01 A3031 RMK A01 T10031008  RH  096%=      5-min Rain = 0
KCH1 090255Z 34005KT M00/M01 A3031 RMK A01 T10031008  RH  096%=      5-min Rain = 0
KCH1 090256Z 33005KT M00/M01 A3031 RMK A01 T10031008  RH  096%=      5-min Rain = 0
KCH1 090257Z 33004KT M00/M01 A3031 RMK A01 T10031008  RH  097%=      5-min Rain = 0
KCH1 090258Z 33004KT M00/M01 A3031 RMK A01 T10031008  RH  097%=      5-min Rain = 0
KCH1 090259Z 33005KT M00/M01 A3031 RMK A01 T10041008  RH  097%=      5-min Rain = 0
KCH1 090300Z 33005KT M00/M01 A3031 RMK A01 T10031008  RH  097%=      5-min Rain = 0
KCH1 090301Z 33005KT M00/M01 A3031 RMK A01 T10031008  RH  097%=      5-min Rain = 0
KCH1 090302Z 33004KT M00/M01 A3031 RMK A01 T10031007  RH  097%=      5-min Rain = 0
KCH1 090303Z 33005KT M00/M01 A3031 RMK A01 T10031007  RH  097%=      5-min Rain = 0
KCH1 090304Z 33005KT M00/M01 A3031 RMK A01 T10021007  RH  097%=      5-min Rain = 0
KCH1 090305Z 33005KT M00/M01 A3031 RMK A01 T10021007  RH  097%=      5-min Rain = 0
KCH1 090306Z 33006KT M00/M01 A3031 RMK A01 T10021006  RH  097%=      5-min Rain = 0
KCH1 090307Z 33005KT M00/M01 A3031 RMK A01 T10021006  RH  097%=      5-min Rain = 0
KCH1 090308Z 33004KT M00/M01 A3031 RMK A01 T10021007  RH  096%=      5-min Rain = 0
KCH1 090309Z 33005KT M00/M01 A3031 RMK A01 T10011007  RH  096%=      5-min Rain = 0
KCH1 090310Z 33005KT M00/M01 A3031 RMK A01 T10021007  RH  096%=      5-min Rain = 0
KCH1 090311Z 33005KT M00/M01 A3031 RMK A01 T10021007  RH  096%=      5-min Rain = 0
KCH1 090312Z 33004KT M00/M01 A3031 RMK A01 T10011007  RH  096%=      5-min Rain = 0
KCH1 090313Z 33005KT M00/M01 A3031 RMK A01 T10021007  RH  096%=      5-min Rain = 0
KCH1 090314Z 33005KT M00/M01 A3031 RMK A01 T10021007  RH  096%=      5-min Rain = 0
KCH1 090315Z 33005KT M00/M01 A3031 RMK A01 T10021007  RH  096%=      5-min Rain = 0
KCH1 090316Z 33005KT M00/M01 A3032 RMK A01 T10021008  RH  096%=      5-min Rain = 0
KCH1 090317Z 33005KT M00/M01 A3032 RMK A01 T10021008  RH  096%=      5-min Rain = 0
KCH1 090318Z 33003KT M00/M01 A3032 RMK A01 T10021008  RH  096%=      5-min Rain = 0
KCH1 090319Z 33005KT M00/M01 A3031 RMK A01 T10031008  RH  096%=      5-min Rain = 0
KCH1 090320Z 34004KT M00/M01 A3032 RMK A01 T10031008  RH  096%=      5-min Rain = 0
KCH1 090321Z 33004KT M00/M01 A3032 RMK A01 T10031008  RH  096%=      5-min Rain = 0
KCH1 090322Z 33004KT M00/M01 A3031 RMK A01 T10031008  RH  096%=      5-min Rain = 0
KCH1 090323Z 33005KT M00/M01 A3031 RMK A01 T10031008  RH  097%=      5-min Rain = 0
KCH1 090324Z 34004KT M00/M01 A3031 RMK A01 T10031008  RH  097%=      5-min Rain = 0
KCH1 090325Z 33004KT M00/M01 A3031 RMK A01 T10031008  RH  097%=      5-min Rain = 0
KCH1 090326Z 34004KT M00/M01 A3031 RMK A01 T10031008  RH  097%=      5-min Rain = 0
KCH1 090327Z 34004KT M00/M01 A3031 RMK A01 T10031008  RH  097%=      5-min Rain = 0
KCH1 090328Z 34004KT M00/M01 A3031 RMK A01 T10031008  RH  097%=      5-min Rain = 0
KCH1 090329Z 34003KT M00/M01 A3031 RMK A01 T10031008  RH  097%=      5-min Rain = 0
KCH1 090330Z 34003KT M00/M01 A3031 RMK A01 T10031008  RH  097%=      5-min Rain = 0
KCH1 090331Z 34003KT M00/M01 A3031 RMK A01 T10041008  RH  097%=      5-min Rain = 0
KCH1 090332Z 34004KT M00/M01 A3031 RMK A01 T10041009  RH  097%=      5-min Rain = 0
KCH1 090333Z 34003KT M00/M01 A3032 RMK A01 T10041009  RH  097%=      5-min Rain = 0
KCH1 090334Z 33003KT M00/M01 A3032 RMK A01 T10041009  RH  097%=      5-min Rain = 0
KCH1 090335Z 34003KT M01/M01 A3031 RMK A01 T10051009  RH  097%=      5-min Rain = 0
KCH1 090336Z 35003KT M01/M01 A3031 RMK A01 T10051009  RH  097%=      5-min Rain = 0
KCH1 090337Z 35003KT M01/M01 A3031 RMK A01 T10051009  RH  097%=      5-min Rain = 0
KCH1 090338Z 35002KT M01/M01 A3031 RMK A01 T10051009  RH  097%=      5-min Rain = 0
KCH1 090339Z 35003KT M01/M01 A3031 RMK A01 T10051009  RH  097%=      5-min Rain = 0
KCH1 090340Z 35003KT M01/M01 A3031 RMK A01 T10051009  RH  097%=      5-min Rain = 0
KCH1 090341Z 35003KT M01/M01 A3031 RMK A01 T10051009  RH  097%=      5-min Rain = 0
KCH1 090342Z 35002KT M01/M01 A3031 RMK A01 T10051009  RH  097%=      5-min Rain = 0
KCH1 090343Z 35002KT M01/M01 A3032 RMK A01 T10051009  RH  097%=      5-min Rain = 0
KCH1 090344Z 34003KT M01/M01 A3032 RMK A01 T10051009  RH  097%=      5-min Rain = 0
KCH1 090345Z 34003KT M01/M01 A3032 RMK A01 T10061009  RH  097%=      5-min Rain = 0
KCH1 090346Z 34003KT M01/M01 A3032 RMK A01 T10051009  RH  097%=      5-min Rain = 0
KCH1 090347Z 34003KT M01/M01 A3032 RMK A01 T10061009  RH  097%=      5-min Rain = 0
KCH1 090348Z 34003KT M01/M01 A3032 RMK A01 T10061009  RH  097%=      5-min Rain = 0
KCH1 090349Z 34003KT M01/M01 A3032 RMK A01 T10061009  RH  097%=      5-min Rain = 0
KCH1 090350Z 34004KT M01/M01 A3032 RMK A01 T10061010  RH  097%=      5-min Rain = 0
KCH1 090351Z 34004KT M01/M01 A3032 RMK A01 T10061010  RH  097%=      5-min Rain = 0
KCH1 090352Z 33003KT M01/M01 A3032 RMK A01 T10061010  RH  097%=      5-min Rain = 0
KCH1 090353Z 33004KT M01/M01 A3032 RMK A01 T10061010  RH  097%=      5-min Rain = 0
KCH1 090354Z 33004KT M01/M01 A3032 RMK A01 T10061010  RH  097%=      5-min Rain = 0
KCH1 090355Z 33003KT M01/M01 A3032 RMK A01 T10061010  RH  097%=      5-min Rain = 0
KCH1 090356Z 33003KT M01/M01 A3032 RMK A01 T10071010  RH  097%=      5-min Rain = 0
KCH1 090357Z 33003KT M01/M01 A3032 RMK A01 T10071010  RH  097%=      5-min Rain = 0
KCH1 090358Z 33003KT M01/M01 A3032 RMK A01 T10071011  RH  097%=      5-min Rain = 0
KCH1 090359Z 34003KT M01/M01 A3032 RMK A01 T10071010  RH  098%=      5-min Rain = 0
KCH1 090400Z 34004KT M01/M01 A3032 RMK A01 T10071010  RH  098%=      5-min Rain = 0
KCH1 090401Z 34003KT M01/M01 A3032 RMK A01 T10071010  RH  098%=      5-min Rain = 0
KCH1 090402Z 34003KT M01/M01 A3032 RMK A01 T10061010  RH  098%=      5-min Rain = 0
KCH1 090403Z 34004KT M01/M01 A3032 RMK A01 T10071010  RH  098%=      5-min Rain = 0
KCH1 090404Z 35004KT M01/M01 A3032 RMK A01 T10071010  RH  098%=      5-min Rain = 0
KCH1 090405Z 34003KT M01/M01 A3032 RMK A01 T10061010  RH  098%=      5-min Rain = 0
KCH1 090406Z 34003KT M01/M01 A3032 RMK A01 T10071010  RH  098%=      5-min Rain = 0
KCH1 090407Z 33004KT M01/M01 A3032 RMK A01 T10071010  RH  098%=      5-min Rain = 0
KCH1 090408Z 32004KT M01/M01 A3032 RMK A01 T10071010  RH  098%=      5-min Rain = 0
KCH1 090409Z 32004KT M01/M01 A3032 RMK A01 T10071010  RH  098%=      5-min Rain = 0
KCH1 090410Z 32004KT M01/M01 A3032 RMK A01 T10071010  RH  098%=      5-min Rain = 0
KCH1 090411Z 32004KT M01/M01 A3032 RMK A01 T10061009  RH  098%=      5-min Rain = 0
KCH1 090412Z 32004KT M01/M01 A3032 RMK A01 T10071009  RH  098%=      5-min Rain = 0
KCH1 090413Z 32004KT M01/M01 A3032 RMK A01 T10061009  RH  098%=      5-min Rain = 0
KCH1 090414Z 32004KT M01/M01 A3032 RMK A01 T10061009  RH  098%=      5-min Rain = 0
KCH1 090415Z 32003KT M01/M01 A3032 RMK A01 T10061009  RH  098%=      5-min Rain = 0
KCH1 090416Z 33004KT M01/M01 A3032 RMK A01 T10061009  RH  098%=      5-min Rain = 0
KCH1 090417Z 33005KT M01/M01 A3032 RMK A01 T10061009  RH  098%=      5-min Rain = 0
KCH1 090418Z 33004KT M01/M01 A3032 RMK A01 T10061009  RH  098%=      5-min Rain = 0
KCH1 090419Z 32005KT M01/M01 A3032 RMK A01 T10061009  RH  098%=      5-min Rain = 0
KCH1 090420Z 32004KT M01/M01 A3032 RMK A01 T10061008  RH  098%=      5-min Rain = 0
KCH1 090421Z 32004KT M00/M01 A3032 RMK A01 T10041007  RH  098%=      5-min Rain = 0
KCH1 090422Z 32005KT M00/M01 A3032 RMK A01 T10041007  RH  098%=      5-min Rain = 0
KCH1 090423Z 33004KT M00/M01 A3032 RMK A01 T10041007  RH  098%=      5-min Rain = 0
KCH1 090424Z 32003KT M00/M01 A3032 RMK A01 T10041007  RH  098%=      5-min Rain = 0
KCH1 090425Z 32004KT M00/M01 A3032 RMK A01 T10041007  RH  098%=      5-min Rain = 0
KCH1 090426Z 32004KT M00/M01 A3032 RMK A01 T10041007  RH  098%=      5-min Rain = 0
KCH1 090427Z 33003KT M00/M01 A3032 RMK A01 T10031006  RH  098%=      5-min Rain = 0
KCH1 090428Z 32002KT M00/M01 A3032 RMK A01 T10031006  RH  098%=      5-min Rain = 0
KCH1 090429Z 32001KT M00/M01 A3032 RMK A01 T10031006  RH  098%=      5-min Rain = 0
KCH1 090430Z 34001KT M00/M01 A3032 RMK A01 T10031007  RH  098%=      5-min Rain = 0
KCH1 090431Z 35000KT M00/M01 A3032 RMK A01 T10041008  RH  097%=      5-min Rain = 0
KCH1 090432Z 35001KT M01/M01 A3032 RMK A01 T10061010  RH  097%=      5-min Rain = 0
KCH1 090433Z 35001KT M01/M01 A3032 RMK A01 T10081012  RH  097%=      5-min Rain = 0
KCH1 090434Z 35000KT M01/M01 A3032 RMK A01 T10091013  RH  097%=      5-min Rain = 0
KCH1 090435Z 00000KT M01/M01 A3032 RMK A01 T10101014  RH  097%=      5-min Rain = 0
KCH1 090436Z 00000KT M01/M01 A3032 RMK A01 T10101014  RH  097%=      5-min Rain = 0
KCH1 090437Z 34000KT M01/M01 A3032 RMK A01 T10091014  RH  097%=      5-min Rain = 0
KCH1 090438Z 34000KT M01/M01 A3032 RMK A01 T10101013  RH  097%=      5-min Rain = 0
KCH1 090439Z 31000KT M01/M01 A3032 RMK A01 T10101013  RH  097%=      5-min Rain = 0
KCH1 090440Z 31000KT M01/M01 A3032 RMK A01 T10091013  RH  098%=      5-min Rain = 0
KCH1 090441Z 32000KT M01/M01 A3032 RMK A01 T10091013  RH  098%=      5-min Rain = 0
KCH1 090442Z 31001KT M01/M01 A3032 RMK A01 T10091012  RH  098%=      5-min Rain = 0
KCH1 090443Z 31000KT M01/M01 A3032 RMK A01 T10091012  RH  098%=      5-min Rain = 0
KCH1 090444Z 31000KT M01/M01 A3032 RMK A01 T10081011  RH  098%=      5-min Rain = 0
KCH1 090445Z 00000KT M01/M01 A3032 RMK A01 T10081011  RH  098%=      5-min Rain = 0
KCH1 090446Z 00000KT M01/M01 A3032 RMK A01 T10081011  RH  098%=      5-min Rain = 0
KCH1 090447Z 02001KT M01/M01 A3032 RMK A01 T10081011  RH  098%=      5-min Rain = 0
KCH1 090448Z 02000KT M01/M01 A3032 RMK A01 T10081011  RH  098%=      5-min Rain = 0
KCH1 090449Z 00000KT M01/M01 A3032 RMK A01 T10081011  RH  098%=      5-min Rain = 0
KCH1 090450Z 00000KT M01/M01 A3032 RMK A01 T10081011  RH  098%=      5-min Rain = 0
KCH1 090451Z 00000KT M01/M01 A3032 RMK A01 T10081011  RH  098%=      5-min Rain = 0
KCH1 090452Z 00000KT M01/M01 A3032 RMK A01 T10091011  RH  098%=      5-min Rain = 0
KCH1 090453Z 30000KT M01/M01 A3032 RMK A01 T10081010  RH  098%=      5-min Rain = 0
KCH1 090454Z 29000KT M01/M01 A3032 RMK A01 T10081010  RH  098%=      5-min Rain = 0
KCH1 090455Z 28001KT M01/M01 A3033 RMK A01 T10081010  RH  098%=      5-min Rain = 0
KCH1 090456Z 30001KT M01/M01 A3033 RMK A01 T10071010  RH  098%=      5-min Rain = 0
KCH1 090457Z 32000KT M01/M01 A3033 RMK A01 T10071010  RH  098%=      5-min Rain = 0
KCH1 090458Z 00000KT M01/M01 A3033 RMK A01 T10071009  RH  098%=      5-min Rain = 0
KCH1 090459Z 28001KT M01/M01 A3032 RMK A01 T10071009  RH  098%=      5-min Rain = 0
KCH1 090500Z 33000KT M01/M01 A3032 RMK A01 T10071009  RH  098%=      5-min Rain = 0
KCH1 090501Z 34000KT M01/M01 A3032 RMK A01 T10081010  RH  098%=      5-min Rain = 0
KCH1 090502Z 29000KT M01/M01 A3032 RMK A01 T10081010  RH  098%=      5-min Rain = 0
KCH1 090503Z 00000KT M01/M01 A3032 RMK A01 T10081010  RH  098%=      5-min Rain = 0
KCH1 090504Z 00000KT M01/M01 A3032 RMK A01 T10081010  RH  098%=      5-min Rain = 0
KCH1 090505Z 35001KT M01/M01 A3032 RMK A01 T10081010  RH  098%=      5-min Rain = 0
KCH1 090506Z 33001KT M01/M01 A3032 RMK A01 T10081011  RH  098%=      5-min Rain = 0
KCH1 090507Z 35001KT M01/M01 A3032 RMK A01 T10081011  RH  098%=      5-min Rain = 0
KCH1 090508Z 35002KT M01/M01 A3032 RMK A01 T10081011  RH  098%=      5-min Rain = 0
KCH1 090509Z 34002KT M01/M01 A3032 RMK A01 T10081010  RH  098%=      5-min Rain = 0
KCH1 090510Z 34003KT M01/M01 A3032 RMK A01 T10081010  RH  098%=      5-min Rain = 0
KCH1 090511Z 34003KT M01/M01 A3032 RMK A01 T10081011  RH  098%=      5-min Rain = 0
KCH1 090512Z 33003KT M01/M01 A3032 RMK A01 T10091012  RH  098%=      5-min Rain = 0
KCH1 090513Z 33003KT M01/M01 A3032 RMK A01 T10091012  RH  098%=      5-min Rain = 0
KCH1 090514Z 33003KT M01/M01 A3032 RMK A01 T10091012  RH  098%=      5-min Rain = 0
KCH1 090515Z 34003KT M01/M01 A3032 RMK A01 T10091012  RH  098%=      5-min Rain = 0
KCH1 090516Z 33003KT M01/M01 A3032 RMK A01 T10091012  RH  098%=      5-min Rain = 0
KCH1 090517Z 33002KT M01/M01 A3032 RMK A01 T10091012  RH  098%=      5-min Rain = 0
KCH1 090518Z 32002KT M01/M01 A3032 RMK A01 T10091012  RH  098%=      5-min Rain = 0
KCH1 090519Z 31002KT M01/M01 A3032 RMK A01 T10091012  RH  098%=      5-min Rain = 0
KCH1 090520Z 31002KT M01/M01 A3032 RMK A01 T10091012  RH  098%=      5-min Rain = 0
KCH1 090521Z 31003KT M01/M01 A3032 RMK A01 T10091011  RH  098%=      5-min Rain = 0
KCH1 090522Z 30003KT M01/M01 A3032 RMK A01 T10091011  RH  098%=      5-min Rain = 0
KCH1 090523Z 30003KT M01/M01 A3032 RMK A01 T10081010  RH  099%=      5-min Rain = 0
KCH1 090524Z 30003KT M01/M01 A3032 RMK A01 T10081010  RH  099%=      5-min Rain = 0
KCH1 090525Z 30003KT M01/M01 A3032 RMK A01 T10081010  RH  099%=      5-min Rain = 0
KCH1 090526Z 30003KT M01/M01 A3032 RMK A01 T10071009  RH  099%=      5-min Rain = 0
KCH1 090527Z 30003KT M01/M01 A3032 RMK A01 T10071009  RH  099%=      5-min Rain = 0
KCH1 090528Z 30003KT M01/M01 A3032 RMK A01 T10061008  RH  099%=      5-min Rain = 0
KCH1 090529Z 30002KT M01/M01 A3032 RMK A01 T10061007  RH  099%=      5-min Rain = 0
KCH1 090530Z 31002KT M01/M01 A3032 RMK A01 T10061008  RH  099%=      5-min Rain = 0
KCH1 090531Z 31002KT M01/M01 A3032 RMK A01 T10061008  RH  099%=      5-min Rain = 0
KCH1 090532Z 31002KT M01/M01 A3032 RMK A01 T10061008  RH  099%=      5-min Rain = 0
KCH1 090533Z 31002KT M01/M01 A3032 RMK A01 T10071009  RH  098%=      5-min Rain = 0
KCH1 090534Z 31002KT M01/M01 A3032 RMK A01 T10071009  RH  098%=      5-min Rain = 0
KCH1 090535Z 33002KT M01/M01 A3032 RMK A01 T10071009  RH  099%=      5-min Rain = 0
KCH1 090536Z 33002KT M01/M01 A3032 RMK A01 T10071009  RH  099%=      5-min Rain = 0
KCH1 090537Z 34002KT M01/M01 A3032 RMK A01 T10071009  RH  099%=      5-min Rain = 0
KCH1 090538Z 34003KT M01/M01 A3032 RMK A01 T10071009  RH  099%=      5-min Rain = 0
KCH1 090539Z 34003KT M01/M01 A3032 RMK A01 T10091011  RH  098%=      5-min Rain = 0
KCH1 090540Z 34003KT M01/M01 A3032 RMK A01 T10091012  RH  098%=      5-min Rain = 0
KCH1 090541Z 33003KT M01/M01 A3032 RMK A01 T10101013  RH  098%=      5-min Rain = 0
KCH1 090542Z 33003KT M01/M01 A3032 RMK A01 T10101013  RH  098%=      5-min Rain = 0
KCH1 090543Z 32003KT M01/M01 A3032 RMK A01 T10101013  RH  098%=      5-min Rain = 0
KCH1 090544Z 32003KT M01/M01 A3032 RMK A01 T10101013  RH  098%=      5-min Rain = 0
KCH1 090545Z 31003KT M01/M01 A3032 RMK A01 T10101012  RH  099%=      5-min Rain = 0
KCH1 090546Z 32003KT M01/M01 A3032 RMK A01 T10091011  RH  099%=      5-min Rain = 0
KCH1 090547Z 31003KT M01/M01 A3032 RMK A01 T10081010  RH  099%=      5-min Rain = 0
KCH1 090548Z 31003KT M01/M01 A3032 RMK A01 T10081009  RH  099%=      5-min Rain = 0
KCH1 090549Z 31003KT M01/M01 A3032 RMK A01 T10081010  RH  099%=      5-min Rain = 0
KCH1 090550Z 31003KT M01/M01 A3032 RMK A01 T10081009  RH  099%=      5-min Rain = 0
KCH1 090551Z 32003KT M01/M01 A3032 RMK A01 T10081009  RH  099%=      5-min Rain = 0
KCH1 090552Z 32004KT M01/M01 A3032 RMK A01 T10071009  RH  099%=      5-min Rain = 0
KCH1 090553Z 31003KT M01/M01 A3032 RMK A01 T10071008  RH  099%=      5-min Rain = 0
KCH1 090554Z 32003KT M01/M01 A3032 RMK A01 T10071008  RH  099%=      5-min Rain = 0
KCH1 090555Z 32003KT M01/M01 A3032 RMK A01 T10071008  RH  099%=      5-min Rain = 0
KCH1 090556Z 33003KT M01/M01 A3032 RMK A01 T10061008  RH  099%=      5-min Rain = 0
KCH1 090557Z 32004KT M01/M01 A3032 RMK A01 T10061008  RH  099%=      5-min Rain = 0
KCH1 090558Z 33004KT M01/M01 A3032 RMK A01 T10071008  RH  099%=      5-min Rain = 0
KCH1 090559Z 33004KT M01/M01 A3032 RMK A01 T10071008  RH  099%=      5-min Rain = 0

Page generated in 0.0711 seconds.